GFSNGP_prec_precacc_129.txt.gz
Total_Precipitation_Accumulation
0.48 0.62 0.46 0.68 1.14 1.18 0.89 0.75 0.82 0.92 0.61 0.50 0.67 1.13 1.04 0.94 0.75 0.66 0.95 0.68 0.76 0.70 0.78 0.75 0.62 0.67 0.71 0.75 0.93 1.13 1.20 1.23 1.06 0.90 1.02 0.86 0.91 0.78 0.59 0.57 0.52 0.53 0.48 0.51
0.66 0.61 0.37 0.55 0.92 0.65 0.63 0.97 0.87 0.53 0.73 0.55 0.55 0.75 0.90 0.97 0.85 0.53 0.69 0.69 0.89 0.66 0.52 0.61 0.51 0.47 0.51 0.58 0.69 0.70 0.72 0.88 0.80 0.64 0.70 0.88 0.94 0.86 0.66 0.59 0.62 0.62 0.66 0.64
0.39 0.26 0.18 0.54 0.82 0.50 0.30 0.27 0.26 0.19 0.40 0.43 0.52 0.47 0.77 0.87 0.86 0.75 0.71 0.68 0.96 0.90 0.67 0.59 0.66 0.64 0.65 0.65 0.70 0.65 0.66 0.77 0.72 0.63 0.71 0.67 0.83 0.90 0.91 0.88 1.10 1.14 1.07 0.95
0.31 0.31 0.63 0.67 0.28 0.15 0.04 0.06 0.07 0.06 0.14 0.20 0.34 0.47 0.78 0.87 0.88 0.93 0.85 0.87 1.14 1.20 0.91 0.71 0.72 0.63 0.62 0.64 0.67 0.88 0.86 0.89 0.94 0.83 0.74 0.74 0.82 0.83 1.22 1.61 1.36 1.10 0.97 0.88
0.52 0.34 0.44 0.26 0.09 0.05 0.09 0.12 0.08 0.08 0.12 0.17 0.18 0.27 0.69 0.91 0.62 0.80 0.70 0.51 0.39 0.59 0.85 0.82 0.70 0.64 0.59 0.60 0.55 0.55 0.84 0.94 0.96 1.05 1.15 1.10 1.09 1.27 1.31 1.23 1.06 0.97 0.86 0.84
0.61 0.36 0.35 0.20 0.06 0.03 0.04 0.17 0.08 0.05 0.05 0.07 0.14 0.34 0.33 0.47 0.47 0.60 0.34 0.16 0.07 0.05 0.12 0.30 0.49 0.62 0.57 0.58 0.61 0.54 0.62 0.84 0.97 1.06 1.32 1.54 1.67 1.51 1.24 1.16 1.22 1.18 1.12 1.06
0.60 0.47 0.16 0.05 0.09 0.09 0.25 0.38 0.10 0.08 0.05 0.06 0.10 0.23 0.35 0.28 0.52 0.68 0.13 0.02 0.01 0.01 0.01 0.02 0.05 0.17 0.31 0.38 0.52 0.64 0.55 0.61 0.84 1.10 1.13 1.23 1.27 1.32 1.37 1.34 1.23 1.25 1.33 1.30
0.52 0.58 0.33 0.12 0.27 0.38 0.37 0.19 0.09 0.11 0.09 0.10 0.16 0.32 0.42 0.49 0.52 0.31 0.10 0.01 0.00 0.00 0.00 0.00 0.00 0.01 0.08 0.16 0.16 0.23 0.36 0.42 0.44 0.47 0.65 0.74 0.85 0.98 0.99 1.02 1.09 1.07 1.04 1.08
0.26 0.33 0.37 0.33 0.44 0.36 0.19 0.23 0.23 0.16 0.12 0.17 0.40 0.63 0.74 0.71 0.57 0.31 0.09 0.01 0.00 0.00 0.00 0.00 0.01 0.02 0.07 0.10 0.09 0.09 0.11 0.16 0.22 0.22 0.25 0.39 0.54 0.61 0.67 0.75 0.78 0.78 0.80 0.87
0.86 0.75 0.42 0.51 0.48 0.27 0.27 0.32 0.26 0.16 0.17 0.22 0.28 0.38 0.42 0.40 0.35 0.22 0.06 0.01 0.02 0.02 0.02 0.05 0.06 0.06 0.09 0.08 0.08 0.09 0.09 0.08 0.08 0.10 0.15 0.15 0.19 0.26 0.33 0.42 0.51 0.65 0.75 0.79
1.18 0.90 0.65 0.59 1.06 0.59 0.30 0.21 0.14 0.07 0.04 0.05 0.04 0.05 0.06 0.04 0.03 0.03 0.04 0.04 0.04 0.06 0.08 0.06 0.05 0.08 0.12 0.13 0.11 0.11 0.10 0.10 0.10 0.10 0.11 0.09 0.15 0.26 0.29 0.49 0.56 0.60 0.76 0.91
1.07 1.20 1.07 0.99 0.90 0.79 0.56 0.37 0.19 0.10 0.06 0.04 0.02 0.01 0.03 0.05 0.07 0.05 0.04 0.05 0.06 0.06 0.07 0.09 0.09 0.12 0.13 0.12 0.12 0.13 0.15 0.16 0.23 0.20 0.19 0.18 0.19 0.27 0.39 0.50 0.54 0.63 0.76 0.85
0.62 0.77 1.08 1.00 0.64 0.36 0.27 0.18 0.07 0.04 0.03 0.04 0.04 0.02 0.05 0.11 0.09 0.06 0.05 0.05 0.06 0.07 0.09 0.11 0.16 0.20 0.26 0.30 0.29 0.31 0.33 0.31 0.32 0.36 0.36 0.34 0.36 0.38 0.49 0.68 0.73 0.88 0.99 1.06
0.13 0.24 0.29 0.20 0.16 0.04 0.02 0.02 0.02 0.01 0.01 0.02 0.08 0.19 0.25 0.23 0.22 0.21 0.20 0.16 0.11 0.10 0.14 0.18 0.25 0.40 0.56 0.64 0.66 0.71 0.72 0.77 0.73 0.76 0.81 0.86 0.92 1.04 1.14 1.24 1.36 1.57 1.56 1.38
0.06 0.06 0.05 0.04 0.02 0.02 0.02 0.02 0.02 0.02 0.05 0.12 0.13 0.12 0.18 0.26 0.28 0.27 0.23 0.20 0.19 0.21 0.26 0.30 0.33 0.44 0.43 0.47 0.55 0.66 0.78 1.00 1.09 1.13 1.21 1.24 1.22 1.23 1.20 1.14 1.09 1.09 1.01 0.91
0.02 0.04 0.08 0.10 0.11 0.11 0.10 0.11 0.16 0.28 0.32 0.22 0.16 0.17 0.17 0.17 0.21 0.23 0.23 0.20 0.17 0.22 0.23 0.22 0.30 0.49 0.47 0.50 0.62 0.76 0.92 1.07 1.08 1.11 1.12 1.06 0.97 0.85 0.76 0.73 0.66 0.62 0.59 0.60
0.07 0.09 0.11 0.14 0.15 0.20 0.27 0.36 0.45 0.44 0.35 0.34 0.38 0.38 0.34 0.35 0.37 0.44 0.49 0.46 0.43 0.50 0.57 0.61 0.84 0.84 0.84 0.85 0.80 0.85 0.81 0.80 0.75 0.68 0.65 0.64 0.61 0.58 0.55 0.51 0.52 0.47 0.48 0.45
0.15 0.15 0.16 0.20 0.30 0.42 0.43 0.34 0.27 0.29 0.35 0.38 0.38 0.39 0.43 0.46 0.53 0.61 0.70 0.66 0.64 0.74 0.88 0.96 0.91 0.83 0.76 0.69 0.57 0.51 0.45 0.41 0.37 0.36 0.36 0.35 0.32 0.30 0.31 0.29 0.27 0.27 0.26 0.21
0.17 0.24 0.32 0.40 0.41 0.29 0.24 0.27 0.32 0.37 0.46 0.50 0.53 0.68 0.75 0.82 0.85 0.95 0.96 0.81 0.80 0.75 0.94 0.70 0.51 0.35 0.32 0.29 0.21 0.19 0.21 0.23 0.23 0.23 0.23 0.21 0.20 0.21 0.24 0.27 0.29 0.30 0.28 0.29
0.40 0.37 0.28 0.27 0.29 0.32 0.42 0.57 0.58 0.64 0.82 0.74 0.74 0.77 0.80 0.94 0.90 0.82 0.67 0.60 0.59 0.58 0.48 0.38 0.26 0.20 0.20 0.19 0.15 0.14 0.15 0.16 0.16 0.16 0.17 0.19 0.24 0.28 0.30 0.29 0.29 0.31 0.33 0.34
0.64 0.61 0.64 0.66 0.74 0.79 0.78 0.83 0.66 0.74 0.93 0.79 0.62 0.71 0.71 0.79 0.69 0.58 0.43 0.45 0.57 0.41 0.31 0.25 0.20 0.17 0.13 0.12 0.10 0.11 0.14 0.18 0.22 0.26 0.29 0.29 0.28 0.24 0.25 0.29 0.35 0.35 0.33 0.29
0.71 0.64 0.71 0.73 0.62 0.75 0.81 0.73 0.55 0.57 0.58 0.55 0.54 0.53 0.43 0.47 0.41 0.34 0.31 0.27 0.31 0.23 0.16 0.14 0.12 0.07 0.07 0.08 0.09 0.11 0.12 0.17 0.20 0.21 0.22 0.23 0.28 0.33 0.35 0.33 0.31 0.28 0.26 0.24
0.65 0.59 0.57 0.54 0.47 0.51 0.52 0.46 0.47 0.38 0.39 0.41 0.37 0.33 0.26 0.26 0.23 0.17 0.23 0.23 0.15 0.13 0.10 0.09 0.09 0.06 0.07 0.11 0.13 0.14 0.17 0.20 0.22 0.27 0.30 0.32 0.31 0.30 0.26 0.23 0.21 0.20 0.20 0.19
0.53 0.49 0.47 0.44 0.32 0.22 0.29 0.40 0.28 0.24 0.19 0.17 0.16 0.14 0.10 0.10 0.14 0.12 0.10 0.09 0.08 0.07 0.08 0.08 0.08 0.07 0.08 0.15 0.18 0.21 0.25 0.27 0.26 0.24 0.23 0.21 0.21 0.20 0.19 0.17 0.16 0.15 0.16 0.15
0.42 0.41 0.37 0.29 0.24 0.30 0.23 0.18 0.10 0.09 0.09 0.09 0.11 0.08 0.05 0.06 0.13 0.12 0.07 0.08 0.07 0.09 0.13 0.08 0.08 0.08 0.16 0.21 0.22 0.21 0.21 0.21 0.18 0.19 0.21 0.22 0.19 0.19 0.18 0.17 0.17 0.16 0.16 0.16
0.32 0.31 0.29 0.24 0.23 0.19 0.16 0.11 0.12 0.14 0.09 0.10 0.16 0.17 0.15 0.10 0.08 0.08 0.09 0.09 0.07 0.09 0.14 0.16 0.15 0.14 0.18 0.19 0.19 0.17 0.20 0.18 0.17 0.21 0.21 0.19 0.19 0.19 0.17 0.17 0.16 0.16 0.18 0.19
0.27 0.22 0.17 0.15 0.16 0.15 0.14 0.15 0.16 0.17 0.15 0.16 0.18 0.19 0.16 0.15 0.12 0.10 0.10 0.11 0.13 0.14 0.16 0.19 0.19 0.21 0.21 0.20 0.21 0.20 0.19 0.18 0.18 0.17 0.17 0.18 0.19 0.18 0.18 0.17 0.16 0.17 0.17 0.18

GFSNGP_prec_precacc_132.txt.gz
Total_Precipitation_Accumulation
0.48 0.62 0.46 0.68 1.14 1.18 0.90 0.75 0.82 0.92 0.61 0.50 0.67 1.13 1.04 0.94 0.75 0.66 0.95 0.68 0.76 0.70 0.78 0.75 0.62 0.67 0.71 0.75 0.93 1.18 1.30 1.34 1.41 1.45 1.28 1.05 0.98 0.81 0.63 0.62 0.66 0.75 0.77 0.85
0.66 0.61 0.37 0.55 0.92 0.65 0.63 0.97 0.87 0.53 0.73 0.55 0.55 0.75 0.90 0.97 0.85 0.53 0.69 0.69 0.89 0.66 0.52 0.61 0.51 0.47 0.51 0.58 0.69 0.70 0.72 0.89 0.81 0.69 0.76 0.94 0.96 0.87 0.69 0.63 0.68 0.75 0.85 0.88
0.40 0.26 0.18 0.54 0.82 0.50 0.30 0.27 0.26 0.19 0.40 0.43 0.52 0.47 0.77 0.87 0.86 0.75 0.71 0.68 0.96 0.90 0.67 0.59 0.66 0.64 0.65 0.65 0.70 0.65 0.66 0.77 0.72 0.63 0.71 0.67 0.83 0.91 0.94 0.94 1.20 1.25 1.21 1.09
0.32 0.32 0.64 0.67 0.28 0.15 0.04 0.06 0.07 0.06 0.14 0.20 0.34 0.47 0.78 0.87 0.88 0.93 0.85 0.87 1.14 1.20 0.91 0.71 0.72 0.63 0.62 0.64 0.67 0.88 0.86 0.89 0.94 0.83 0.74 0.74 0.82 0.83 1.22 1.61 1.36 1.10 0.97 0.88
0.55 0.35 0.44 0.26 0.09 0.05 0.09 0.12 0.08 0.08 0.12 0.17 0.18 0.27 0.69 0.91 0.62 0.80 0.70 0.51 0.39 0.59 0.85 0.82 0.70 0.64 0.59 0.60 0.55 0.55 0.84 0.94 0.96 1.05 1.15 1.10 1.09 1.27 1.31 1.23 1.06 0.97 0.87 0.84
0.63 0.38 0.35 0.20 0.06 0.03 0.04 0.18 0.08 0.05 0.05 0.07 0.14 0.34 0.34 0.47 0.47 0.60 0.34 0.16 0.07 0.05 0.12 0.30 0.49 0.62 0.57 0.58 0.61 0.54 0.62 0.84 0.97 1.06 1.32 1.54 1.67 1.51 1.24 1.16 1.22 1.18 1.12 1.06
0.61 0.47 0.16 0.05 0.09 0.09 0.26 0.38 0.10 0.08 0.05 0.06 0.10 0.23 0.35 0.28 0.52 0.68 0.13 0.02 0.01 0.01 0.01 0.02 0.05 0.17 0.31 0.38 0.52 0.64 0.55 0.61 0.84 1.10 1.13 1.23 1.27 1.32 1.37 1.34 1.23 1.25 1.33 1.30
0.53 0.59 0.33 0.12 0.27 0.38 0.37 0.19 0.09 0.11 0.09 0.10 0.17 0.33 0.42 0.49 0.52 0.31 0.10 0.01 0.00 0.00 0.00 0.00 0.00 0.01 0.08 0.16 0.16 0.23 0.36 0.42 0.44 0.47 0.65 0.74 0.85 0.98 0.99 1.02 1.09 1.07 1.04 1.08
0.26 0.33 0.37 0.33 0.44 0.36 0.19 0.23 0.23 0.16 0.12 0.17 0.42 0.65 0.74 0.71 0.57 0.31 0.09 0.01 0.00 0.00 0.00 0.00 0.01 0.02 0.07 0.10 0.09 0.09 0.11 0.16 0.22 0.22 0.25 0.39 0.54 0.61 0.67 0.75 0.78 0.78 0.80 0.87
0.86 0.75 0.42 0.51 0.48 0.27 0.27 0.32 0.26 0.16 0.18 0.25 0.32 0.39 0.42 0.40 0.36 0.22 0.06 0.01 0.02 0.02 0.02 0.05 0.06 0.06 0.09 0.08 0.08 0.09 0.09 0.08 0.08 0.10 0.15 0.15 0.19 0.26 0.33 0.42 0.51 0.65 0.75 0.79
1.18 0.90 0.65 0.59 1.06 0.59 0.30 0.21 0.14 0.07 0.05 0.05 0.05 0.05 0.06 0.06 0.04 0.04 0.05 0.04 0.04 0.06 0.08 0.06 0.05 0.08 0.12 0.13 0.11 0.11 0.10 0.10 0.10 0.10 0.11 0.09 0.15 0.26 0.29 0.49 0.56 0.60 0.76 0.91
1.07 1.20 1.07 0.99 0.90 0.79 0.56 0.37 0.19 0.10 0.07 0.05 0.02 0.03 0.05 0.07 0.08 0.05 0.04 0.05 0.06 0.06 0.07 0.09 0.09 0.12 0.13 0.12 0.12 0.13 0.15 0.16 0.23 0.20 0.19 0.18 0.19 0.27 0.39 0.50 0.55 0.63 0.76 0.85
0.62 0.77 1.08 1.00 0.64 0.36 0.27 0.18 0.07 0.05 0.04 0.04 0.04 0.04 0.06 0.11 0.09 0.06 0.05 0.05 0.06 0.07 0.09 0.11 0.16 0.20 0.26 0.30 0.29 0.31 0.33 0.31 0.32 0.36 0.36 0.34 0.36 0.38 0.49 0.68 0.73 0.90 0.99 1.06
0.13 0.24 0.29 0.20 0.16 0.04 0.02 0.02 0.02 0.01 0.01 0.02 0.09 0.19 0.25 0.23 0.22 0.21 0.20 0.16 0.11 0.10 0.14 0.18 0.25 0.40 0.56 0.64 0.66 0.71 0.72 0.77 0.73 0.76 0.81 0.86 0.92 1.04 1.14 1.24 1.36 1.57 1.56 1.38
0.06 0.06 0.05 0.04 0.02 0.02 0.02 0.02 0.02 0.02 0.05 0.12 0.13 0.12 0.18 0.26 0.28 0.27 0.23 0.20 0.19 0.21 0.26 0.30 0.33 0.44 0.43 0.47 0.55 0.66 0.78 1.00 1.09 1.13 1.21 1.24 1.22 1.23 1.20 1.14 1.09 1.09 1.01 0.91
0.02 0.04 0.08 0.10 0.11 0.11 0.10 0.11 0.16 0.28 0.32 0.22 0.16 0.17 0.17 0.17 0.21 0.23 0.23 0.20 0.17 0.22 0.23 0.22 0.30 0.49 0.47 0.50 0.62 0.76 0.92 1.07 1.08 1.11 1.12 1.06 0.97 0.85 0.76 0.73 0.66 0.62 0.59 0.60
0.07 0.09 0.11 0.14 0.15 0.20 0.27 0.36 0.45 0.44 0.35 0.34 0.38 0.38 0.34 0.35 0.37 0.44 0.49 0.46 0.43 0.50 0.57 0.61 0.84 0.84 0.84 0.85 0.80 0.85 0.81 0.80 0.75 0.68 0.65 0.64 0.61 0.58 0.55 0.51 0.52 0.47 0.48 0.45
0.15 0.15 0.16 0.20 0.30 0.42 0.43 0.34 0.27 0.29 0.35 0.38 0.38 0.39 0.43 0.46 0.53 0.61 0.70 0.66 0.64 0.74 0.88 0.96 0.91 0.83 0.76 0.69 0.57 0.51 0.45 0.41 0.37 0.36 0.36 0.35 0.32 0.30 0.31 0.29 0.27 0.27 0.26 0.21
0.17 0.24 0.32 0.40 0.41 0.29 0.24 0.27 0.32 0.37 0.46 0.50 0.53 0.68 0.75 0.82 0.85 0.95 0.96 0.81 0.80 0.75 0.94 0.70 0.51 0.35 0.32 0.29 0.21 0.19 0.21 0.23 0.23 0.23 0.23 0.21 0.20 0.21 0.24 0.27 0.29 0.30 0.29 0.30
0.40 0.37 0.28 0.27 0.29 0.32 0.42 0.57 0.58 0.64 0.82 0.74 0.74 0.77 0.80 0.94 0.90 0.82 0.67 0.60 0.59 0.58 0.48 0.38 0.26 0.20 0.20 0.19 0.15 0.14 0.15 0.16 0.16 0.16 0.17 0.19 0.24 0.28 0.30 0.29 0.29 0.31 0.34 0.34
0.64 0.61 0.64 0.66 0.74 0.79 0.78 0.83 0.66 0.74 0.93 0.79 0.62 0.71 0.71 0.79 0.69 0.58 0.43 0.45 0.57 0.41 0.31 0.25 0.20 0.17 0.13 0.12 0.10 0.11 0.14 0.18 0.22 0.26 0.29 0.30 0.28 0.25 0.26 0.29 0.35 0.36 0.33 0.29
0.71 0.64 0.71 0.73 0.62 0.75 0.81 0.73 0.55 0.57 0.58 0.55 0.54 0.53 0.43 0.47 0.41 0.34 0.32 0.28 0.31 0.23 0.16 0.14 0.12 0.07 0.07 0.08 0.09 0.11 0.12 0.17 0.20 0.21 0.22 0.24 0.29 0.33 0.35 0.33 0.32 0.28 0.26 0.24
0.65 0.59 0.57 0.54 0.47 0.51 0.52 0.46 0.47 0.38 0.39 0.41 0.37 0.33 0.26 0.26 0.23 0.17 0.23 0.24 0.15 0.13 0.10 0.09 0.09 0.06 0.07 0.11 0.13 0.14 0.17 0.20 0.22 0.27 0.30 0.32 0.31 0.30 0.26 0.23 0.21 0.20 0.20 0.19
0.53 0.49 0.47 0.44 0.32 0.22 0.29 0.40 0.28 0.24 0.19 0.17 0.16 0.14 0.10 0.10 0.14 0.12 0.10 0.09 0.08 0.07 0.08 0.08 0.08 0.07 0.08 0.15 0.18 0.21 0.25 0.27 0.26 0.24 0.23 0.21 0.21 0.20 0.19 0.17 0.16 0.15 0.16 0.15
0.42 0.41 0.37 0.29 0.24 0.30 0.23 0.18 0.10 0.09 0.09 0.09 0.11 0.08 0.05 0.06 0.13 0.12 0.07 0.08 0.07 0.09 0.13 0.08 0.08 0.08 0.16 0.21 0.22 0.21 0.21 0.21 0.18 0.20 0.21 0.22 0.19 0.19 0.18 0.17 0.17 0.16 0.16 0.16
0.32 0.31 0.29 0.24 0.23 0.19 0.16 0.11 0.12 0.14 0.09 0.10 0.16 0.18 0.15 0.10 0.08 0.08 0.09 0.09 0.07 0.09 0.14 0.16 0.15 0.14 0.18 0.19 0.19 0.17 0.20 0.18 0.18 0.21 0.21 0.19 0.19 0.19 0.17 0.17 0.16 0.16 0.18 0.20
0.27 0.22 0.17 0.15 0.16 0.15 0.14 0.15 0.16 0.17 0.16 0.16 0.19 0.20 0.16 0.15 0.12 0.10 0.10 0.11 0.13 0.14 0.16 0.19 0.19 0.21 0.21 0.20 0.21 0.20 0.19 0.18 0.18 0.17 0.17 0.18 0.19 0.18 0.18 0.17 0.17 0.17 0.18 0.18

GFSNGP_prec_precacc_138.txt.gz
Total_Precipitation_Accumulation
0.48 0.62 0.46 0.68 1.14 1.18 0.90 0.75 0.85 0.92 0.61 0.50 0.67 1.13 1.04 0.94 0.75 0.66 0.95 0.68 0.76 0.70 0.78 0.75 0.62 0.67 0.71 0.75 0.93 1.18 1.30 1.38 1.65 2.10 2.16 1.99 2.01 2.00 1.65 1.49 1.51 1.19 1.03 0.96
0.66 0.61 0.37 0.55 0.92 0.65 0.63 0.97 0.87 0.53 0.73 0.55 0.55 0.75 0.90 0.97 0.85 0.53 0.69 0.69 0.89 0.66 0.52 0.61 0.51 0.47 0.51 0.58 0.69 0.70 0.72 0.89 0.81 0.71 0.89 1.22 1.36 1.30 1.01 1.28 1.60 1.30 1.36 1.05
0.40 0.26 0.18 0.54 0.82 0.50 0.30 0.27 0.26 0.19 0.40 0.43 0.52 0.47 0.77 0.87 0.86 0.75 0.71 0.68 0.96 0.90 0.67 0.59 0.66 0.64 0.65 0.65 0.70 0.65 0.66 0.77 0.72 0.63 0.71 0.67 0.87 0.96 1.02 0.97 1.26 1.34 1.31 1.16
0.32 0.33 0.66 0.67 0.28 0.15 0.04 0.06 0.07 0.06 0.14 0.20 0.34 0.47 0.78 0.87 0.88 0.93 0.85 0.87 1.14 1.20 0.91 0.71 0.72 0.63 0.62 0.64 0.67 0.88 0.86 0.89 0.94 0.83 0.75 0.74 0.82 0.83 1.22 1.61 1.37 1.11 0.99 0.90
0.61 0.37 0.45 0.26 0.09 0.05 0.09 0.12 0.08 0.08 0.12 0.17 0.18 0.27 0.69 0.91 0.62 0.80 0.70 0.51 0.39 0.59 0.85 0.82 0.70 0.64 0.59 0.60 0.55 0.55 0.84 0.94 0.96 1.05 1.15 1.10 1.09 1.27 1.31 1.23 1.07 0.97 0.87 0.85
0.75 0.53 0.42 0.20 0.06 0.03 0.04 0.18 0.08 0.05 0.05 0.07 0.14 0.34 0.34 0.47 0.47 0.60 0.34 0.16 0.07 0.05 0.12 0.30 0.49 0.62 0.57 0.58 0.61 0.54 0.62 0.84 0.97 1.06 1.32 1.54 1.67 1.51 1.24 1.16 1.22 1.18 1.12 1.06
0.69 0.59 0.19 0.05 0.09 0.09 0.26 0.38 0.10 0.08 0.05 0.06 0.10 0.23 0.35 0.28 0.52 0.68 0.13 0.02 0.01 0.01 0.01 0.02 0.05 0.17 0.31 0.38 0.52 0.64 0.55 0.61 0.84 1.10 1.13 1.23 1.27 1.32 1.37 1.34 1.23 1.25 1.33 1.30
0.55 0.65 0.35 0.12 0.27 0.38 0.37 0.19 0.09 0.11 0.09 0.10 0.17 0.33 0.42 0.49 0.52 0.31 0.10 0.01 0.00 0.00 0.00 0.00 0.00 0.01 0.08 0.16 0.16 0.23 0.36 0.42 0.44 0.47 0.65 0.74 0.85 0.98 0.99 1.02 1.09 1.07 1.04 1.08
0.27 0.33 0.37 0.33 0.44 0.36 0.19 0.23 0.23 0.16 0.12 0.17 0.42 0.66 0.74 0.71 0.57 0.31 0.09 0.01 0.00 0.00 0.00 0.00 0.01 0.02 0.07 0.10 0.09 0.09 0.11 0.16 0.22 0.22 0.25 0.39 0.54 0.61 0.67 0.75 0.78 0.78 0.80 0.87
0.90 0.76 0.42 0.51 0.48 0.27 0.27 0.32 0.26 0.16 0.18 0.26 0.33 0.40 0.42 0.40 0.37 0.23 0.07 0.02 0.02 0.02 0.02 0.05 0.06 0.06 0.09 0.08 0.08 0.09 0.09 0.08 0.08 0.10 0.15 0.15 0.19 0.26 0.34 0.44 0.51 0.65 0.75 0.79
1.21 0.90 0.65 0.59 1.06 0.59 0.30 0.21 0.14 0.07 0.05 0.06 0.06 0.05 0.06 0.07 0.07 0.06 0.05 0.04 0.04 0.06 0.08 0.06 0.05 0.08 0.12 0.13 0.11 0.11 0.10 0.10 0.10 0.10 0.11 0.09 0.15 0.26 0.29 0.50 0.57 0.61 0.76 0.91
1.09 1.21 1.08 0.99 0.90 0.79 0.56 0.37 0.19 0.10 0.07 0.06 0.03 0.03 0.05 0.09 0.10 0.06 0.04 0.05 0.06 0.06 0.07 0.09 0.09 0.12 0.13 0.12 0.12 0.13 0.15 0.16 0.23 0.20 0.19 0.18 0.19 0.27 0.39 0.50 0.55 0.63 0.76 0.85
0.62 0.77 1.08 1.00 0.64 0.36 0.27 0.18 0.07 0.05 0.04 0.05 0.05 0.04 0.07 0.12 0.10 0.07 0.05 0.05 0.06 0.07 0.09 0.11 0.16 0.20 0.26 0.30 0.29 0.31 0.33 0.31 0.32 0.36 0.36 0.34 0.36 0.38 0.49 0.68 0.73 0.90 1.00 1.06
0.13 0.24 0.29 0.20 0.16 0.04 0.02 0.02 0.02 0.02 0.01 0.02 0.09 0.19 0.25 0.23 0.22 0.21 0.20 0.16 0.11 0.10 0.14 0.18 0.25 0.40 0.56 0.64 0.66 0.71 0.72 0.77 0.73 0.76 0.81 0.86 0.92 1.04 1.14 1.24 1.36 1.57 1.56 1.38
0.06 0.06 0.05 0.04 0.02 0.02 0.02 0.02 0.02 0.02 0.06 0.13 0.13 0.12 0.18 0.26 0.28 0.27 0.23 0.20 0.19 0.21 0.26 0.30 0.33 0.44 0.43 0.47 0.55 0.66 0.78 1.00 1.09 1.13 1.21 1.24 1.22 1.23 1.20 1.14 1.09 1.09 1.01 0.91
0.02 0.04 0.08 0.10 0.11 0.11 0.11 0.11 0.16 0.28 0.32 0.22 0.17 0.17 0.17 0.17 0.21 0.23 0.23 0.20 0.17 0.22 0.23 0.22 0.30 0.49 0.47 0.50 0.62 0.76 0.92 1.07 1.08 1.11 1.12 1.06 0.97 0.85 0.76 0.73 0.66 0.62 0.59 0.60
0.07 0.09 0.11 0.14 0.15 0.20 0.27 0.36 0.45 0.44 0.35 0.34 0.38 0.38 0.34 0.35 0.37 0.44 0.49 0.46 0.43 0.50 0.57 0.61 0.84 0.84 0.84 0.85 0.80 0.85 0.81 0.80 0.75 0.68 0.65 0.64 0.62 0.58 0.55 0.52 0.52 0.47 0.48 0.45
0.15 0.15 0.16 0.20 0.30 0.42 0.43 0.34 0.27 0.29 0.35 0.38 0.38 0.39 0.43 0.46 0.53 0.61 0.70 0.66 0.64 0.74 0.88 0.96 0.91 0.83 0.76 0.69 0.57 0.51 0.45 0.41 0.37 0.36 0.36 0.35 0.33 0.31 0.31 0.29 0.28 0.27 0.26 0.21
0.17 0.24 0.32 0.40 0.41 0.29 0.24 0.27 0.32 0.37 0.46 0.50 0.53 0.68 0.75 0.82 0.85 0.95 0.96 0.81 0.80 0.75 0.94 0.70 0.51 0.35 0.32 0.29 0.21 0.19 0.21 0.23 0.23 0.23 0.23 0.21 0.20 0.21 0.24 0.27 0.29 0.30 0.29 0.30
0.40 0.37 0.28 0.27 0.29 0.32 0.42 0.57 0.58 0.64 0.82 0.74 0.74 0.77 0.80 0.94 0.90 0.82 0.67 0.60 0.59 0.58 0.48 0.38 0.26 0.20 0.20 0.19 0.15 0.14 0.15 0.16 0.16 0.16 0.17 0.19 0.24 0.28 0.30 0.29 0.29 0.32 0.34 0.34
0.64 0.61 0.64 0.66 0.74 0.79 0.78 0.83 0.66 0.74 0.93 0.79 0.62 0.71 0.71 0.79 0.69 0.58 0.43 0.46 0.57 0.41 0.31 0.25 0.20 0.17 0.13 0.12 0.10 0.11 0.14 0.18 0.22 0.26 0.29 0.30 0.28 0.25 0.26 0.29 0.35 0.36 0.33 0.29
0.71 0.64 0.71 0.73 0.62 0.75 0.81 0.73 0.55 0.57 0.58 0.55 0.54 0.53 0.43 0.47 0.41 0.34 0.32 0.28 0.31 0.23 0.16 0.14 0.12 0.07 0.07 0.08 0.09 0.11 0.12 0.17 0.20 0.21 0.22 0.24 0.29 0.33 0.35 0.33 0.32 0.28 0.26 0.24
0.65 0.59 0.57 0.54 0.47 0.51 0.52 0.46 0.47 0.38 0.39 0.41 0.37 0.33 0.26 0.26 0.23 0.17 0.24 0.24 0.15 0.13 0.10 0.09 0.09 0.06 0.07 0.11 0.13 0.14 0.17 0.20 0.22 0.27 0.30 0.32 0.31 0.30 0.26 0.23 0.21 0.20 0.20 0.20
0.53 0.49 0.47 0.44 0.32 0.22 0.29 0.40 0.28 0.24 0.19 0.17 0.16 0.14 0.10 0.10 0.15 0.12 0.10 0.09 0.08 0.07 0.08 0.08 0.08 0.07 0.08 0.15 0.18 0.21 0.25 0.27 0.26 0.24 0.23 0.21 0.21 0.20 0.19 0.17 0.16 0.15 0.16 0.16
0.42 0.41 0.37 0.29 0.24 0.30 0.23 0.18 0.10 0.09 0.09 0.09 0.11 0.08 0.05 0.06 0.13 0.12 0.07 0.08 0.07 0.09 0.13 0.08 0.08 0.08 0.16 0.21 0.22 0.21 0.21 0.21 0.18 0.20 0.21 0.22 0.19 0.19 0.18 0.17 0.17 0.16 0.16 0.16
0.32 0.31 0.30 0.24 0.23 0.19 0.16 0.11 0.12 0.14 0.09 0.10 0.16 0.18 0.15 0.10 0.08 0.08 0.09 0.09 0.07 0.09 0.14 0.16 0.15 0.14 0.18 0.19 0.19 0.17 0.20 0.18 0.18 0.21 0.21 0.19 0.19 0.19 0.17 0.17 0.16 0.16 0.18 0.20
0.27 0.22 0.17 0.15 0.16 0.15 0.14 0.15 0.16 0.17 0.16 0.16 0.20 0.20 0.16 0.15 0.13 0.10 0.10 0.11 0.13 0.14 0.16 0.19 0.19 0.21 0.21 0.20 0.21 0.20 0.19 0.18 0.18 0.17 0.17 0.18 0.19 0.18 0.18 0.17 0.17 0.17 0.18 0.18

GFSNGP_prec_precacc_144.txt.gz
Total_Precipitation_Accumulation
0.48 0.62 0.47 0.68 1.14 1.18 0.90 0.76 0.85 0.92 0.61 0.50 0.67 1.13 1.04 0.94 0.75 0.66 0.95 0.68 0.76 0.70 0.78 0.75 0.62 0.67 0.71 0.75 0.93 1.18 1.30 1.38 1.65 2.10 2.16 1.99 2.03 2.08 1.85 1.90 2.03 1.80 1.65 1.39
0.66 0.61 0.37 0.55 0.92 0.65 0.63 0.97 0.87 0.53 0.73 0.55 0.55 0.75 0.90 0.97 0.85 0.53 0.69 0.69 0.89 0.66 0.52 0.61 0.51 0.47 0.51 0.58 0.69 0.70 0.72 0.89 0.81 0.71 0.89 1.22 1.37 1.32 1.07 1.40 1.74 1.55 1.79 1.37
0.40 0.26 0.18 0.54 0.82 0.50 0.30 0.27 0.26 0.19 0.40 0.43 0.52 0.47 0.77 0.87 0.86 0.75 0.71 0.68 0.96 0.90 0.67 0.59 0.66 0.64 0.65 0.65 0.70 0.65 0.66 0.77 0.72 0.63 0.71 0.67 0.87 0.96 1.03 0.99 1.31 1.42 1.49 1.33
0.33 0.34 0.67 0.67 0.28 0.15 0.04 0.06 0.07 0.06 0.14 0.20 0.34 0.47 0.78 0.87 0.88 0.93 0.85 0.87 1.14 1.20 0.91 0.71 0.72 0.63 0.62 0.64 0.67 0.88 0.86 0.89 0.94 0.83 0.75 0.74 0.82 0.83 1.22 1.61 1.37 1.13 1.05 0.96
0.64 0.39 0.45 0.26 0.09 0.05 0.10 0.12 0.08 0.08 0.12 0.17 0.18 0.27 0.69 0.91 0.62 0.80 0.70 0.51 0.39 0.59 0.85 0.82 0.70 0.64 0.59 0.60 0.55 0.55 0.84 0.94 0.96 1.05 1.15 1.10 1.09 1.27 1.31 1.23 1.07 0.97 0.88 0.86
0.79 0.58 0.43 0.20 0.06 0.03 0.04 0.18 0.08 0.05 0.05 0.07 0.14 0.34 0.34 0.47 0.47 0.60 0.34 0.16 0.07 0.05 0.12 0.30 0.49 0.62 0.57 0.58 0.61 0.54 0.62 0.84 0.98 1.06 1.32 1.54 1.67 1.51 1.24 1.16 1.22 1.18 1.12 1.06
0.70 0.63 0.21 0.05 0.09 0.09 0.28 0.40 0.10 0.08 0.05 0.06 0.10 0.23 0.35 0.28 0.52 0.68 0.13 0.02 0.01 0.01 0.01 0.02 0.05 0.17 0.31 0.38 0.52 0.64 0.55 0.61 0.84 1.10 1.13 1.23 1.27 1.32 1.37 1.34 1.23 1.25 1.33 1.31
0.56 0.68 0.36 0.12 0.27 0.38 0.39 0.19 0.09 0.11 0.09 0.10 0.17 0.33 0.42 0.49 0.52 0.31 0.10 0.01 0.00 0.00 0.00 0.00 0.00 0.01 0.08 0.16 0.16 0.23 0.36 0.42 0.44 0.47 0.65 0.74 0.85 0.98 0.99 1.02 1.09 1.07 1.04 1.08
0.27 0.33 0.37 0.33 0.44 0.36 0.19 0.23 0.23 0.16 0.12 0.17 0.42 0.66 0.74 0.71 0.57 0.31 0.09 0.01 0.00 0.00 0.00 0.00 0.01 0.02 0.07 0.10 0.09 0.09 0.11 0.16 0.22 0.22 0.25 0.39 0.54 0.62 0.67 0.75 0.78 0.78 0.80 0.87
0.91 0.76 0.42 0.51 0.48 0.27 0.27 0.32 0.26 0.16 0.18 0.26 0.33 0.40 0.42 0.40 0.37 0.23 0.07 0.02 0.02 0.02 0.02 0.05 0.06 0.06 0.09 0.08 0.08 0.09 0.09 0.08 0.08 0.10 0.15 0.15 0.19 0.26 0.34 0.44 0.51 0.65 0.75 0.79
1.21 0.90 0.65 0.59 1.06 0.59 0.30 0.21 0.14 0.07 0.05 0.06 0.06 0.05 0.06 0.07 0.07 0.06 0.05 0.04 0.04 0.06 0.08 0.06 0.05 0.08 0.12 0.13 0.11 0.11 0.10 0.10 0.10 0.10 0.11 0.09 0.15 0.26 0.29 0.51 0.57 0.61 0.76 0.91
1.10 1.21 1.08 0.99 0.90 0.79 0.56 0.37 0.19 0.10 0.07 0.06 0.03 0.03 0.05 0.10 0.11 0.06 0.04 0.05 0.06 0.06 0.07 0.09 0.09 0.12 0.13 0.12 0.12 0.13 0.15 0.16 0.23 0.20 0.19 0.18 0.19 0.27 0.39 0.50 0.55 0.63 0.76 0.85
0.62 0.77 1.08 1.00 0.64 0.36 0.27 0.18 0.07 0.05 0.04 0.05 0.05 0.04 0.07 0.13 0.10 0.07 0.05 0.05 0.06 0.07 0.09 0.11 0.16 0.20 0.26 0.30 0.29 0.31 0.33 0.31 0.32 0.36 0.36 0.34 0.36 0.38 0.49 0.68 0.73 0.90 1.00 1.06
0.13 0.24 0.29 0.20 0.16 0.04 0.02 0.02 0.02 0.02 0.01 0.02 0.09 0.19 0.25 0.23 0.22 0.21 0.20 0.16 0.11 0.10 0.14 0.18 0.25 0.40 0.56 0.64 0.66 0.71 0.72 0.77 0.73 0.76 0.81 0.86 0.92 1.04 1.14 1.25 1.36 1.57 1.56 1.38
0.06 0.06 0.05 0.04 0.02 0.02 0.02 0.02 0.02 0.02 0.06 0.13 0.13 0.12 0.18 0.26 0.28 0.27 0.23 0.20 0.19 0.21 0.26 0.30 0.33 0.44 0.43 0.47 0.55 0.66 0.78 1.00 1.09 1.13 1.21 1.24 1.22 1.23 1.21 1.14 1.09 1.09 1.01 0.91
0.02 0.04 0.08 0.10 0.11 0.11 0.11 0.11 0.16 0.28 0.32 0.22 0.17 0.17 0.17 0.17 0.21 0.23 0.23 0.20 0.17 0.22 0.23 0.22 0.30 0.49 0.47 0.50 0.62 0.76 0.92 1.07 1.08 1.11 1.12 1.06 0.97 0.85 0.76 0.73 0.66 0.62 0.60 0.60
0.07 0.09 0.11 0.14 0.15 0.20 0.27 0.36 0.45 0.44 0.35 0.34 0.38 0.38 0.34 0.35 0.37 0.44 0.49 0.46 0.43 0.50 0.57 0.61 0.84 0.84 0.84 0.85 0.80 0.85 0.81 0.80 0.75 0.68 0.65 0.64 0.62 0.58 0.55 0.52 0.53 0.47 0.49 0.46
0.15 0.15 0.16 0.20 0.30 0.42 0.43 0.34 0.27 0.29 0.35 0.38 0.38 0.39 0.43 0.46 0.53 0.61 0.70 0.66 0.64 0.74 0.88 0.96 0.91 0.83 0.76 0.69 0.57 0.51 0.45 0.41 0.37 0.36 0.36 0.35 0.33 0.31 0.31 0.29 0.28 0.27 0.26 0.21
0.17 0.24 0.32 0.40 0.41 0.29 0.24 0.27 0.32 0.37 0.46 0.50 0.53 0.68 0.75 0.82 0.85 0.95 0.96 0.81 0.80 0.75 0.94 0.70 0.51 0.35 0.32 0.29 0.21 0.19 0.21 0.23 0.23 0.23 0.23 0.21 0.20 0.21 0.24 0.27 0.29 0.30 0.29 0.30
0.40 0.37 0.28 0.27 0.29 0.32 0.42 0.57 0.58 0.64 0.82 0.74 0.74 0.77 0.80 0.94 0.90 0.82 0.67 0.60 0.59 0.58 0.48 0.38 0.26 0.20 0.20 0.19 0.15 0.14 0.15 0.16 0.16 0.16 0.17 0.19 0.24 0.28 0.30 0.29 0.29 0.32 0.34 0.34
0.64 0.61 0.64 0.66 0.74 0.79 0.78 0.83 0.66 0.74 0.93 0.79 0.62 0.71 0.71 0.79 0.69 0.58 0.43 0.46 0.57 0.41 0.31 0.25 0.20 0.17 0.13 0.12 0.10 0.11 0.14 0.18 0.22 0.26 0.29 0.30 0.28 0.25 0.26 0.29 0.35 0.36 0.33 0.29
0.71 0.64 0.71 0.73 0.62 0.75 0.81 0.73 0.55 0.57 0.58 0.55 0.54 0.53 0.43 0.47 0.41 0.34 0.32 0.28 0.31 0.23 0.16 0.14 0.12 0.07 0.07 0.08 0.09 0.11 0.12 0.17 0.20 0.21 0.22 0.24 0.29 0.33 0.35 0.33 0.32 0.28 0.27 0.25
0.65 0.59 0.57 0.54 0.47 0.51 0.52 0.46 0.47 0.38 0.39 0.41 0.37 0.33 0.26 0.26 0.23 0.17 0.24 0.24 0.15 0.13 0.10 0.09 0.09 0.06 0.07 0.11 0.13 0.14 0.17 0.20 0.22 0.27 0.30 0.32 0.31 0.30 0.26 0.23 0.21 0.20 0.20 0.20
0.53 0.49 0.47 0.44 0.32 0.22 0.29 0.40 0.28 0.24 0.19 0.17 0.16 0.14 0.10 0.10 0.15 0.12 0.10 0.10 0.08 0.07 0.08 0.08 0.08 0.07 0.08 0.15 0.18 0.21 0.25 0.27 0.26 0.24 0.23 0.21 0.21 0.20 0.19 0.17 0.16 0.15 0.16 0.16
0.42 0.41 0.37 0.29 0.24 0.30 0.23 0.18 0.10 0.09 0.09 0.09 0.11 0.08 0.05 0.06 0.13 0.12 0.08 0.08 0.07 0.10 0.13 0.08 0.08 0.08 0.16 0.21 0.22 0.21 0.21 0.21 0.18 0.20 0.21 0.22 0.19 0.19 0.18 0.17 0.17 0.16 0.16 0.16
0.32 0.31 0.30 0.24 0.23 0.19 0.16 0.11 0.12 0.14 0.09 0.10 0.16 0.18 0.15 0.10 0.08 0.09 0.09 0.09 0.08 0.09 0.14 0.16 0.15 0.14 0.18 0.19 0.19 0.17 0.20 0.18 0.18 0.21 0.21 0.19 0.19 0.19 0.17 0.17 0.16 0.16 0.18 0.20
0.27 0.23 0.17 0.16 0.16 0.15 0.14 0.15 0.16 0.17 0.16 0.16 0.20 0.21 0.16 0.15 0.13 0.11 0.10 0.12 0.13 0.14 0.16 0.19 0.19 0.21 0.21 0.20 0.21 0.20 0.19 0.18 0.18 0.17 0.17 0.18 0.19 0.18 0.18 0.17 0.17 0.17 0.18 0.18

GFSNGP_prec_precacc_147.txt.gz
Total_Precipitation_Accumulation
0.48 0.62 0.47 0.68 1.14 1.18 0.90 0.76 0.85 0.92 0.61 0.50 0.67 1.13 1.04 0.94 0.75 0.66 0.95 0.68 0.76 0.70 0.78 0.75 0.62 0.67 0.71 0.75 0.93 1.18 1.30 1.38 1.65 2.10 2.16 1.99 2.03 2.08 1.85 1.90 2.03 1.80 1.67 1.43
0.66 0.61 0.37 0.55 0.92 0.65 0.63 0.97 0.87 0.53 0.73 0.55 0.55 0.75 0.90 0.97 0.85 0.53 0.69 0.69 0.89 0.66 0.52 0.61 0.51 0.47 0.51 0.58 0.69 0.70 0.72 0.89 0.81 0.71 0.89 1.22 1.37 1.32 1.07 1.40 1.74 1.55 1.79 1.38
0.40 0.26 0.18 0.54 0.82 0.50 0.30 0.27 0.26 0.19 0.40 0.43 0.52 0.48 0.78 0.87 0.86 0.75 0.72 0.68 0.96 0.90 0.67 0.59 0.66 0.64 0.65 0.65 0.70 0.65 0.66 0.77 0.72 0.63 0.71 0.67 0.87 0.96 1.03 0.99 1.31 1.42 1.49 1.33
0.33 0.34 0.67 0.67 0.28 0.15 0.04 0.06 0.07 0.06 0.15 0.20 0.34 0.47 0.78 0.87 0.88 0.93 0.85 0.87 1.14 1.20 0.91 0.71 0.72 0.63 0.62 0.64 0.67 0.88 0.86 0.89 0.94 0.83 0.75 0.74 0.82 0.83 1.22 1.61 1.37 1.13 1.05 0.96
0.64 0.39 0.45 0.26 0.09 0.05 0.10 0.12 0.08 0.09 0.13 0.17 0.18 0.27 0.69 0.91 0.62 0.80 0.70 0.51 0.39 0.59 0.85 0.82 0.70 0.64 0.59 0.60 0.55 0.55 0.84 0.94 0.96 1.05 1.15 1.10 1.09 1.27 1.31 1.23 1.07 0.97 0.88 0.86
0.80 0.59 0.43 0.20 0.06 0.03 0.04 0.19 0.08 0.05 0.06 0.07 0.15 0.37 0.39 0.48 0.47 0.60 0.34 0.16 0.07 0.05 0.12 0.30 0.49 0.62 0.57 0.58 0.61 0.54 0.62 0.84 0.98 1.06 1.32 1.54 1.67 1.51 1.24 1.16 1.22 1.18 1.12 1.06
0.71 0.65 0.21 0.05 0.09 0.09 0.30 0.43 0.10 0.08 0.05 0.06 0.11 0.24 0.35 0.28 0.52 0.68 0.13 0.02 0.01 0.01 0.01 0.02 0.05 0.17 0.31 0.38 0.52 0.64 0.55 0.61 0.84 1.10 1.13 1.23 1.27 1.32 1.37 1.34 1.23 1.25 1.33 1.31
0.57 0.69 0.36 0.12 0.27 0.38 0.40 0.19 0.09 0.11 0.10 0.10 0.17 0.33 0.43 0.49 0.52 0.31 0.10 0.01 0.00 0.00 0.00 0.00 0.00 0.01 0.08 0.16 0.16 0.23 0.36 0.42 0.44 0.47 0.65 0.74 0.85 0.98 0.99 1.02 1.09 1.07 1.04 1.09
0.27 0.34 0.37 0.33 0.44 0.36 0.19 0.23 0.23 0.16 0.12 0.18 0.43 0.66 0.74 0.71 0.57 0.31 0.09 0.01 0.00 0.00 0.00 0.00 0.01 0.02 0.07 0.10 0.09 0.09 0.11 0.16 0.22 0.22 0.25 0.39 0.54 0.62 0.67 0.75 0.78 0.78 0.80 0.88
0.91 0.76 0.42 0.51 0.48 0.27 0.27 0.32 0.26 0.16 0.18 0.26 0.33 0.40 0.42 0.40 0.37 0.23 0.07 0.02 0.02 0.02 0.02 0.05 0.06 0.06 0.09 0.08 0.08 0.09 0.09 0.08 0.08 0.10 0.15 0.15 0.19 0.26 0.34 0.44 0.51 0.65 0.75 0.79
1.22 0.90 0.65 0.60 1.07 0.59 0.30 0.21 0.14 0.07 0.05 0.06 0.06 0.05 0.06 0.07 0.07 0.06 0.05 0.04 0.04 0.06 0.08 0.06 0.05 0.08 0.12 0.13 0.11 0.11 0.10 0.10 0.10 0.10 0.11 0.09 0.15 0.26 0.29 0.51 0.57 0.61 0.76 0.91
1.10 1.21 1.09 0.99 0.91 0.79 0.56 0.37 0.19 0.10 0.07 0.06 0.03 0.03 0.05 0.10 0.11 0.06 0.04 0.05 0.06 0.06 0.07 0.09 0.09 0.12 0.13 0.12 0.12 0.13 0.15 0.16 0.23 0.20 0.19 0.18 0.19 0.27 0.39 0.50 0.55 0.63 0.76 0.85
0.62 0.77 1.08 1.00 0.64 0.36 0.27 0.18 0.07 0.05 0.04 0.05 0.05 0.04 0.07 0.13 0.10 0.07 0.05 0.05 0.06 0.07 0.09 0.11 0.16 0.20 0.26 0.30 0.29 0.31 0.33 0.31 0.32 0.36 0.36 0.34 0.36 0.38 0.49 0.68 0.74 0.90 1.00 1.06
0.13 0.24 0.29 0.20 0.16 0.04 0.02 0.02 0.02 0.02 0.01 0.02 0.09 0.19 0.25 0.23 0.22 0.21 0.20 0.16 0.11 0.10 0.14 0.18 0.25 0.40 0.56 0.64 0.66 0.71 0.72 0.77 0.73 0.76 0.81 0.86 0.92 1.04 1.15 1.25 1.36 1.58 1.56 1.38
0.06 0.06 0.05 0.04 0.02 0.02 0.02 0.02 0.02 0.02 0.06 0.13 0.13 0.12 0.18 0.26 0.28 0.27 0.23 0.20 0.19 0.21 0.26 0.30 0.33 0.44 0.43 0.47 0.55 0.66 0.78 1.00 1.09 1.13 1.21 1.24 1.23 1.23 1.21 1.15 1.09 1.09 1.01 0.91
0.02 0.04 0.08 0.10 0.11 0.11 0.11 0.11 0.16 0.28 0.32 0.22 0.17 0.17 0.17 0.17 0.21 0.23 0.23 0.20 0.17 0.22 0.23 0.22 0.30 0.49 0.47 0.50 0.62 0.76 0.92 1.07 1.08 1.11 1.12 1.06 0.97 0.85 0.76 0.73 0.66 0.62 0.60 0.60
0.07 0.09 0.11 0.14 0.15 0.20 0.27 0.36 0.45 0.44 0.35 0.34 0.38 0.38 0.34 0.35 0.37 0.44 0.49 0.46 0.43 0.50 0.57 0.61 0.84 0.84 0.84 0.85 0.80 0.85 0.81 0.80 0.75 0.68 0.65 0.64 0.62 0.58 0.55 0.52 0.53 0.47 0.49 0.46
0.15 0.15 0.16 0.20 0.30 0.42 0.43 0.34 0.27 0.29 0.35 0.38 0.38 0.39 0.43 0.46 0.53 0.61 0.70 0.66 0.64 0.74 0.88 0.96 0.91 0.83 0.76 0.69 0.57 0.51 0.45 0.41 0.37 0.36 0.36 0.35 0.33 0.31 0.31 0.29 0.28 0.27 0.26 0.21
0.17 0.24 0.32 0.40 0.41 0.29 0.24 0.27 0.32 0.37 0.46 0.50 0.53 0.68 0.75 0.82 0.85 0.95 0.96 0.81 0.80 0.75 0.94 0.70 0.51 0.35 0.32 0.29 0.21 0.19 0.21 0.23 0.23 0.23 0.23 0.21 0.20 0.21 0.24 0.27 0.29 0.30 0.29 0.30
0.40 0.37 0.28 0.27 0.29 0.32 0.42 0.57 0.58 0.64 0.82 0.74 0.74 0.77 0.80 0.94 0.90 0.82 0.67 0.60 0.59 0.58 0.48 0.38 0.26 0.20 0.20 0.19 0.15 0.14 0.15 0.16 0.16 0.16 0.17 0.19 0.24 0.28 0.30 0.29 0.29 0.32 0.35 0.34
0.64 0.61 0.64 0.66 0.74 0.79 0.78 0.83 0.66 0.74 0.93 0.79 0.62 0.71 0.71 0.79 0.69 0.58 0.43 0.46 0.57 0.41 0.31 0.25 0.20 0.17 0.13 0.12 0.10 0.11 0.14 0.18 0.22 0.26 0.29 0.30 0.28 0.25 0.26 0.29 0.35 0.36 0.34 0.29
0.71 0.64 0.71 0.73 0.62 0.75 0.81 0.73 0.55 0.57 0.58 0.55 0.54 0.53 0.43 0.47 0.41 0.34 0.32 0.28 0.31 0.23 0.16 0.14 0.12 0.07 0.07 0.08 0.09 0.11 0.12 0.17 0.20 0.21 0.22 0.24 0.29 0.33 0.36 0.33 0.32 0.28 0.27 0.25
0.65 0.59 0.57 0.54 0.47 0.51 0.52 0.46 0.47 0.38 0.39 0.41 0.37 0.33 0.26 0.26 0.23 0.17 0.24 0.24 0.15 0.13 0.10 0.09 0.09 0.06 0.07 0.11 0.13 0.14 0.17 0.20 0.22 0.27 0.30 0.32 0.31 0.30 0.27 0.23 0.22 0.21 0.21 0.20
0.53 0.49 0.47 0.44 0.32 0.22 0.29 0.40 0.28 0.24 0.19 0.17 0.16 0.14 0.10 0.10 0.15 0.12 0.10 0.10 0.08 0.07 0.08 0.09 0.08 0.07 0.08 0.15 0.18 0.21 0.25 0.27 0.26 0.24 0.23 0.21 0.21 0.20 0.20 0.17 0.16 0.15 0.16 0.16
0.42 0.41 0.37 0.29 0.24 0.30 0.23 0.18 0.10 0.09 0.09 0.09 0.11 0.08 0.05 0.06 0.13 0.12 0.08 0.09 0.07 0.10 0.13 0.08 0.08 0.08 0.16 0.21 0.22 0.21 0.21 0.21 0.18 0.20 0.21 0.22 0.19 0.20 0.18 0.17 0.17 0.16 0.16 0.16
0.32 0.31 0.30 0.24 0.23 0.19 0.16 0.11 0.12 0.14 0.09 0.10 0.16 0.18 0.15 0.10 0.09 0.09 0.10 0.09 0.08 0.10 0.15 0.17 0.15 0.14 0.18 0.19 0.19 0.17 0.20 0.18 0.18 0.21 0.21 0.19 0.19 0.19 0.17 0.17 0.16 0.16 0.18 0.20
0.27 0.23 0.17 0.16 0.16 0.15 0.14 0.15 0.16 0.17 0.16 0.16 0.20 0.22 0.17 0.16 0.14 0.11 0.11 0.12 0.14 0.15 0.16 0.19 0.19 0.21 0.21 0.20 0.21 0.20 0.19 0.18 0.18 0.17 0.17 0.18 0.19 0.18 0.18 0.17 0.17 0.17 0.18 0.18

GFSNGP_prec_precacc_153.txt.gz
Total_Precipitation_Accumulation
0.48 0.62 0.47 0.68 1.14 1.18 0.90 0.76 0.85 0.92 0.61 0.50 0.67 1.13 1.04 0.94 0.75 0.66 0.95 0.68 0.76 0.70 0.78 0.75 0.62 0.67 0.71 0.75 0.93 1.18 1.30 1.38 1.65 2.10 2.16 1.99 2.03 2.08 1.85 1.90 2.03 1.80 1.67 1.44
0.66 0.61 0.37 0.55 0.92 0.65 0.63 0.97 0.87 0.53 0.73 0.55 0.55 0.75 0.91 0.98 0.86 0.53 0.69 0.69 0.89 0.67 0.52 0.61 0.51 0.47 0.51 0.58 0.69 0.70 0.72 0.89 0.81 0.71 0.89 1.22 1.37 1.32 1.07 1.40 1.74 1.55 1.79 1.38
0.40 0.26 0.18 0.54 0.82 0.50 0.30 0.27 0.26 0.19 0.40 0.43 0.52 0.48 0.78 0.90 0.88 0.75 0.72 0.68 0.97 0.90 0.67 0.59 0.66 0.64 0.65 0.65 0.70 0.65 0.66 0.77 0.72 0.63 0.71 0.67 0.87 0.96 1.03 0.99 1.31 1.42 1.49 1.33
0.33 0.34 0.67 0.67 0.28 0.15 0.04 0.06 0.07 0.06 0.15 0.21 0.35 0.47 0.78 0.87 0.88 0.93 0.85 0.87 1.14 1.20 0.91 0.71 0.72 0.63 0.62 0.64 0.67 0.88 0.86 0.89 0.94 0.83 0.75 0.74 0.82 0.83 1.22 1.61 1.37 1.13 1.05 0.96
0.64 0.39 0.45 0.26 0.09 0.05 0.10 0.12 0.08 0.09 0.13 0.17 0.18 0.27 0.70 0.91 0.62 0.81 0.70 0.51 0.39 0.59 0.85 0.82 0.70 0.64 0.59 0.60 0.55 0.55 0.84 0.94 0.96 1.05 1.15 1.10 1.09 1.27 1.31 1.23 1.07 0.97 0.88 0.86
0.80 0.59 0.43 0.20 0.06 0.03 0.04 0.19 0.08 0.05 0.06 0.07 0.15 0.38 0.42 0.49 0.48 0.60 0.34 0.16 0.07 0.05 0.12 0.30 0.49 0.62 0.57 0.58 0.61 0.54 0.62 0.84 0.98 1.06 1.32 1.54 1.67 1.51 1.24 1.16 1.23 1.19 1.12 1.06
0.72 0.65 0.21 0.05 0.09 0.09 0.30 0.45 0.11 0.08 0.06 0.06 0.12 0.25 0.35 0.28 0.52 0.68 0.13 0.02 0.01 0.01 0.01 0.02 0.05 0.17 0.31 0.38 0.52 0.64 0.55 0.61 0.84 1.10 1.13 1.23 1.27 1.32 1.37 1.34 1.24 1.26 1.34 1.31
0.58 0.70 0.37 0.12 0.27 0.38 0.40 0.19 0.09 0.11 0.10 0.11 0.17 0.33 0.43 0.49 0.52 0.31 0.10 0.01 0.00 0.00 0.00 0.00 0.00 0.01 0.08 0.16 0.16 0.23 0.36 0.42 0.44 0.47 0.65 0.74 0.85 0.98 0.99 1.02 1.09 1.07 1.05 1.09
0.28 0.34 0.38 0.34 0.44 0.36 0.20 0.23 0.23 0.16 0.12 0.18 0.43 0.66 0.74 0.71 0.57 0.31 0.09 0.01 0.00 0.00 0.00 0.00 0.01 0.02 0.07 0.10 0.09 0.09 0.11 0.16 0.22 0.22 0.25 0.39 0.54 0.62 0.67 0.75 0.78 0.78 0.80 0.88
0.91 0.76 0.43 0.51 0.48 0.27 0.27 0.32 0.26 0.16 0.18 0.26 0.34 0.40 0.42 0.40 0.37 0.23 0.07 0.02 0.02 0.02 0.02 0.05 0.06 0.06 0.09 0.08 0.08 0.09 0.09 0.08 0.08 0.10 0.15 0.15 0.19 0.26 0.34 0.44 0.51 0.65 0.75 0.80
1.23 0.90 0.65 0.60 1.07 0.60 0.31 0.21 0.14 0.07 0.05 0.06 0.06 0.05 0.06 0.07 0.07 0.06 0.05 0.04 0.04 0.06 0.08 0.06 0.05 0.08 0.12 0.13 0.11 0.11 0.10 0.10 0.10 0.10 0.11 0.09 0.15 0.26 0.29 0.51 0.57 0.61 0.76 0.91
1.11 1.22 1.10 1.00 0.91 0.79 0.56 0.37 0.19 0.10 0.07 0.06 0.03 0.03 0.05 0.10 0.11 0.06 0.04 0.05 0.06 0.06 0.07 0.09 0.09 0.12 0.13 0.12 0.12 0.13 0.15 0.16 0.23 0.20 0.19 0.18 0.19 0.27 0.39 0.50 0.55 0.63 0.76 0.85
0.62 0.77 1.08 1.00 0.64 0.36 0.27 0.18 0.07 0.05 0.04 0.05 0.05 0.04 0.07 0.13 0.10 0.07 0.05 0.05 0.06 0.07 0.09 0.11 0.16 0.20 0.26 0.30 0.29 0.31 0.33 0.31 0.32 0.36 0.36 0.34 0.36 0.38 0.49 0.69 0.74 0.91 1.00 1.06
0.13 0.24 0.29 0.20 0.16 0.04 0.02 0.02 0.02 0.02 0.01 0.02 0.09 0.19 0.25 0.23 0.22 0.21 0.20 0.16 0.11 0.10 0.14 0.18 0.25 0.40 0.56 0.64 0.66 0.71 0.72 0.77 0.73 0.76 0.81 0.86 0.92 1.04 1.15 1.25 1.38 1.61 1.58 1.38
0.06 0.06 0.05 0.04 0.02 0.02 0.02 0.02 0.02 0.02 0.06 0.13 0.13 0.12 0.18 0.26 0.28 0.27 0.23 0.20 0.19 0.21 0.26 0.30 0.33 0.44 0.43 0.47 0.55 0.66 0.78 1.00 1.09 1.13 1.21 1.25 1.23 1.23 1.21 1.15 1.09 1.09 1.02 0.91
0.02 0.04 0.08 0.10 0.11 0.11 0.11 0.11 0.16 0.28 0.32 0.22 0.17 0.17 0.17 0.17 0.21 0.23 0.23 0.20 0.17 0.22 0.23 0.22 0.30 0.49 0.47 0.50 0.62 0.76 0.92 1.07 1.08 1.11 1.12 1.06 0.97 0.85 0.76 0.73 0.66 0.62 0.60 0.60
0.07 0.09 0.12 0.14 0.15 0.21 0.28 0.36 0.46 0.44 0.35 0.34 0.38 0.38 0.34 0.35 0.37 0.44 0.49 0.46 0.43 0.50 0.57 0.61 0.84 0.84 0.84 0.85 0.80 0.86 0.81 0.80 0.75 0.68 0.65 0.64 0.62 0.58 0.55 0.52 0.53 0.47 0.49 0.46
0.15 0.15 0.16 0.20 0.30 0.43 0.43 0.34 0.27 0.29 0.35 0.38 0.38 0.39 0.43 0.46 0.53 0.61 0.70 0.66 0.64 0.74 0.88 0.96 0.91 0.83 0.76 0.69 0.57 0.51 0.45 0.41 0.37 0.36 0.36 0.35 0.33 0.31 0.31 0.29 0.28 0.27 0.26 0.21
0.19 0.25 0.32 0.40 0.41 0.29 0.24 0.27 0.33 0.37 0.46 0.50 0.53 0.68 0.75 0.82 0.85 0.95 0.96 0.81 0.80 0.75 0.94 0.70 0.51 0.35 0.32 0.29 0.21 0.19 0.21 0.23 0.23 0.23 0.23 0.21 0.20 0.21 0.24 0.27 0.29 0.30 0.29 0.30
0.40 0.37 0.28 0.27 0.29 0.32 0.42 0.57 0.58 0.65 0.82 0.74 0.74 0.77 0.80 0.94 0.90 0.82 0.67 0.60 0.59 0.58 0.48 0.38 0.26 0.20 0.20 0.19 0.15 0.14 0.15 0.16 0.16 0.16 0.17 0.19 0.24 0.28 0.31 0.29 0.29 0.32 0.35 0.35
0.64 0.61 0.64 0.66 0.74 0.79 0.78 0.83 0.67 0.76 0.93 0.79 0.62 0.71 0.72 0.79 0.69 0.58 0.43 0.46 0.57 0.41 0.31 0.25 0.20 0.17 0.13 0.12 0.10 0.11 0.14 0.18 0.22 0.26 0.29 0.30 0.28 0.25 0.26 0.29 0.35 0.36 0.34 0.30
0.71 0.64 0.71 0.73 0.62 0.75 0.81 0.73 0.55 0.57 0.58 0.55 0.54 0.53 0.43 0.48 0.41 0.34 0.32 0.28 0.32 0.23 0.16 0.14 0.12 0.07 0.07 0.08 0.09 0.11 0.12 0.17 0.20 0.21 0.22 0.24 0.29 0.34 0.36 0.33 0.32 0.28 0.27 0.25
0.65 0.59 0.57 0.54 0.47 0.51 0.53 0.47 0.47 0.38 0.39 0.41 0.37 0.33 0.26 0.26 0.23 0.17 0.24 0.25 0.15 0.13 0.10 0.10 0.09 0.06 0.07 0.11 0.13 0.14 0.17 0.20 0.22 0.27 0.30 0.32 0.31 0.30 0.27 0.23 0.22 0.21 0.21 0.20
0.53 0.49 0.47 0.44 0.32 0.22 0.30 0.41 0.29 0.24 0.19 0.17 0.16 0.14 0.10 0.10 0.15 0.12 0.10 0.10 0.08 0.08 0.09 0.09 0.08 0.07 0.08 0.15 0.18 0.21 0.25 0.27 0.26 0.24 0.23 0.21 0.21 0.20 0.20 0.17 0.16 0.15 0.16 0.16
0.42 0.41 0.37 0.29 0.24 0.31 0.23 0.19 0.11 0.10 0.09 0.09 0.11 0.08 0.05 0.06 0.13 0.12 0.08 0.09 0.08 0.11 0.13 0.08 0.08 0.08 0.16 0.22 0.22 0.21 0.21 0.22 0.19 0.20 0.21 0.22 0.20 0.20 0.18 0.17 0.17 0.16 0.16 0.16
0.32 0.31 0.30 0.24 0.23 0.19 0.16 0.11 0.12 0.14 0.09 0.10 0.16 0.18 0.16 0.11 0.09 0.10 0.10 0.10 0.09 0.10 0.15 0.17 0.16 0.15 0.18 0.19 0.19 0.17 0.20 0.18 0.18 0.21 0.21 0.19 0.19 0.19 0.17 0.17 0.17 0.17 0.18 0.20
0.27 0.23 0.17 0.16 0.16 0.15 0.14 0.15 0.16 0.17 0.16 0.17 0.21 0.24 0.19 0.17 0.15 0.12 0.12 0.13 0.15 0.15 0.17 0.20 0.19 0.21 0.21 0.20 0.21 0.20 0.19 0.18 0.18 0.17 0.17 0.18 0.19 0.18 0.18 0.18 0.17 0.17 0.18 0.19

GFSNGP_prec_precacc_156.txt.gz
Total_Precipitation_Accumulation
0.48 0.62 0.47 0.68 1.14 1.18 0.90 0.76 0.85 0.92 0.61 0.50 0.67 1.13 1.04 0.94 0.75 0.66 0.95 0.68 0.76 0.70 0.78 0.75 0.62 0.67 0.71 0.75 0.93 1.18 1.30 1.38 1.65 2.10 2.16 1.99 2.03 2.08 1.85 1.90 2.03 1.80 1.67 1.44
0.66 0.61 0.37 0.55 0.92 0.65 0.63 0.97 0.87 0.53 0.73 0.55 0.55 0.75 0.91 0.98 0.86 0.53 0.69 0.69 0.89 0.67 0.52 0.61 0.51 0.47 0.51 0.58 0.69 0.70 0.72 0.89 0.81 0.71 0.89 1.22 1.37 1.32 1.07 1.40 1.74 1.55 1.79 1.38
0.40 0.26 0.19 0.55 0.82 0.50 0.30 0.27 0.26 0.19 0.40 0.43 0.52 0.48 0.78 0.90 0.88 0.75 0.72 0.68 0.97 0.90 0.67 0.59 0.66 0.64 0.65 0.65 0.70 0.65 0.66 0.77 0.72 0.63 0.71 0.67 0.87 0.96 1.03 0.99 1.31 1.42 1.49 1.33
0.33 0.34 0.67 0.67 0.28 0.15 0.04 0.06 0.07 0.06 0.15 0.21 0.35 0.47 0.78 0.87 0.88 0.93 0.85 0.87 1.14 1.20 0.91 0.71 0.72 0.63 0.62 0.64 0.67 0.88 0.86 0.89 0.94 0.83 0.75 0.74 0.82 0.83 1.22 1.61 1.37 1.13 1.05 0.96
0.64 0.39 0.45 0.26 0.09 0.05 0.10 0.12 0.08 0.09 0.13 0.17 0.18 0.27 0.70 0.91 0.62 0.81 0.70 0.51 0.39 0.59 0.85 0.82 0.70 0.64 0.59 0.60 0.55 0.55 0.84 0.94 0.96 1.05 1.15 1.10 1.09 1.27 1.31 1.23 1.07 0.97 0.88 0.86
0.80 0.59 0.43 0.20 0.06 0.03 0.04 0.19 0.08 0.05 0.06 0.07 0.15 0.38 0.42 0.49 0.48 0.60 0.34 0.16 0.07 0.05 0.12 0.30 0.49 0.62 0.57 0.58 0.61 0.54 0.62 0.84 0.98 1.06 1.32 1.54 1.67 1.51 1.24 1.16 1.23 1.19 1.12 1.06
0.72 0.65 0.21 0.05 0.09 0.09 0.30 0.45 0.11 0.08 0.06 0.06 0.12 0.25 0.35 0.28 0.52 0.68 0.13 0.02 0.01 0.01 0.01 0.02 0.05 0.17 0.31 0.38 0.52 0.64 0.55 0.61 0.84 1.10 1.13 1.23 1.27 1.32 1.37 1.34 1.24 1.26 1.34 1.31
0.58 0.70 0.37 0.12 0.27 0.38 0.40 0.19 0.09 0.11 0.10 0.11 0.17 0.33 0.43 0.49 0.52 0.31 0.10 0.01 0.00 0.00 0.00 0.00 0.00 0.01 0.08 0.16 0.16 0.23 0.36 0.42 0.44 0.47 0.65 0.74 0.85 0.98 0.99 1.02 1.09 1.07 1.05 1.09
0.28 0.34 0.38 0.34 0.44 0.36 0.20 0.23 0.23 0.16 0.12 0.18 0.43 0.66 0.74 0.71 0.57 0.31 0.09 0.01 0.00 0.00 0.00 0.00 0.01 0.02 0.07 0.10 0.09 0.09 0.11 0.16 0.22 0.22 0.25 0.39 0.54 0.62 0.67 0.75 0.78 0.78 0.80 0.88
0.92 0.76 0.43 0.51 0.48 0.28 0.28 0.33 0.26 0.16 0.18 0.26 0.34 0.40 0.42 0.40 0.37 0.23 0.07 0.02 0.02 0.02 0.02 0.05 0.06 0.06 0.09 0.08 0.08 0.09 0.09 0.08 0.08 0.10 0.15 0.15 0.19 0.26 0.34 0.44 0.51 0.65 0.75 0.80
1.23 0.90 0.66 0.60 1.07 0.60 0.31 0.22 0.14 0.07 0.05 0.06 0.06 0.05 0.06 0.07 0.07 0.06 0.05 0.04 0.04 0.06 0.08 0.06 0.05 0.08 0.12 0.13 0.11 0.11 0.10 0.10 0.10 0.10 0.11 0.09 0.15 0.26 0.29 0.51 0.57 0.61 0.76 0.91
1.11 1.22 1.10 1.00 0.91 0.80 0.57 0.37 0.19 0.10 0.07 0.06 0.03 0.03 0.05 0.10 0.11 0.06 0.04 0.05 0.06 0.06 0.07 0.09 0.09 0.12 0.13 0.12 0.12 0.13 0.15 0.16 0.23 0.20 0.19 0.18 0.19 0.27 0.39 0.50 0.55 0.63 0.76 0.85
0.62 0.77 1.08 1.00 0.64 0.36 0.27 0.18 0.07 0.05 0.04 0.05 0.05 0.04 0.07 0.13 0.10 0.07 0.05 0.05 0.06 0.07 0.09 0.11 0.16 0.20 0.26 0.30 0.29 0.31 0.33 0.31 0.32 0.36 0.36 0.34 0.36 0.38 0.49 0.69 0.74 0.91 1.00 1.06
0.13 0.24 0.29 0.20 0.16 0.04 0.02 0.02 0.02 0.02 0.01 0.02 0.09 0.19 0.25 0.23 0.22 0.21 0.20 0.16 0.11 0.10 0.14 0.18 0.25 0.40 0.56 0.64 0.66 0.71 0.72 0.77 0.73 0.76 0.81 0.86 0.92 1.04 1.15 1.25 1.38 1.62 1.58 1.38
0.06 0.06 0.05 0.04 0.02 0.02 0.02 0.02 0.02 0.02 0.06 0.13 0.13 0.12 0.18 0.26 0.28 0.27 0.23 0.20 0.19 0.21 0.26 0.30 0.33 0.44 0.43 0.47 0.55 0.66 0.78 1.00 1.09 1.13 1.21 1.25 1.23 1.23 1.21 1.15 1.09 1.10 1.02 0.91
0.02 0.04 0.08 0.10 0.11 0.11 0.11 0.11 0.16 0.28 0.32 0.22 0.17 0.17 0.17 0.17 0.21 0.23 0.23 0.20 0.17 0.22 0.23 0.22 0.30 0.49 0.47 0.50 0.62 0.76 0.92 1.07 1.08 1.11 1.12 1.06 0.97 0.85 0.76 0.73 0.66 0.62 0.60 0.60
0.07 0.09 0.12 0.14 0.15 0.21 0.28 0.36 0.46 0.44 0.35 0.34 0.38 0.38 0.34 0.35 0.37 0.44 0.49 0.46 0.43 0.50 0.57 0.61 0.84 0.84 0.84 0.85 0.80 0.86 0.81 0.80 0.75 0.68 0.65 0.64 0.62 0.58 0.55 0.52 0.53 0.47 0.49 0.46
0.15 0.15 0.16 0.20 0.30 0.43 0.43 0.34 0.28 0.30 0.36 0.39 0.38 0.39 0.43 0.46 0.53 0.61 0.70 0.66 0.64 0.74 0.88 0.96 0.91 0.83 0.76 0.69 0.57 0.51 0.45 0.41 0.37 0.36 0.36 0.35 0.33 0.31 0.31 0.29 0.28 0.27 0.26 0.21
0.19 0.25 0.32 0.40 0.41 0.29 0.24 0.27 0.33 0.38 0.46 0.50 0.53 0.68 0.75 0.82 0.85 0.95 0.96 0.81 0.80 0.75 0.94 0.70 0.51 0.35 0.32 0.29 0.21 0.19 0.21 0.23 0.23 0.23 0.23 0.21 0.20 0.21 0.24 0.27 0.29 0.30 0.29 0.30
0.40 0.37 0.28 0.27 0.29 0.32 0.43 0.58 0.59 0.65 0.82 0.75 0.74 0.77 0.80 0.94 0.90 0.82 0.67 0.60 0.59 0.58 0.48 0.38 0.26 0.20 0.20 0.19 0.15 0.14 0.15 0.16 0.16 0.16 0.17 0.19 0.24 0.28 0.31 0.29 0.29 0.32 0.35 0.35
0.64 0.61 0.64 0.66 0.74 0.79 0.79 0.84 0.67 0.76 0.95 0.81 0.62 0.71 0.72 0.79 0.69 0.58 0.43 0.46 0.57 0.41 0.31 0.25 0.20 0.17 0.13 0.12 0.10 0.11 0.14 0.18 0.22 0.26 0.29 0.30 0.28 0.25 0.26 0.29 0.35 0.36 0.34 0.30
0.71 0.64 0.71 0.73 0.62 0.75 0.81 0.73 0.55 0.57 0.59 0.57 0.55 0.53 0.43 0.48 0.41 0.34 0.32 0.28 0.32 0.23 0.16 0.14 0.12 0.07 0.07 0.08 0.09 0.11 0.12 0.17 0.20 0.21 0.22 0.24 0.29 0.34 0.36 0.33 0.32 0.28 0.27 0.25
0.65 0.59 0.57 0.54 0.47 0.52 0.53 0.47 0.48 0.38 0.40 0.41 0.37 0.33 0.26 0.26 0.23 0.17 0.24 0.25 0.15 0.13 0.10 0.10 0.09 0.06 0.07 0.11 0.13 0.14 0.17 0.20 0.22 0.27 0.30 0.32 0.31 0.30 0.27 0.23 0.22 0.21 0.21 0.20
0.53 0.49 0.47 0.45 0.33 0.23 0.30 0.42 0.29 0.24 0.20 0.17 0.16 0.14 0.10 0.10 0.15 0.12 0.10 0.10 0.08 0.08 0.09 0.09 0.08 0.07 0.08 0.15 0.18 0.21 0.25 0.27 0.26 0.24 0.23 0.21 0.21 0.20 0.20 0.17 0.16 0.15 0.16 0.16
0.42 0.41 0.37 0.30 0.24 0.31 0.24 0.19 0.11 0.10 0.09 0.09 0.11 0.08 0.05 0.06 0.13 0.12 0.08 0.09 0.08 0.11 0.13 0.08 0.08 0.08 0.16 0.22 0.22 0.21 0.21 0.22 0.19 0.20 0.21 0.22 0.20 0.20 0.18 0.17 0.17 0.16 0.16 0.17
0.32 0.31 0.30 0.24 0.23 0.19 0.16 0.11 0.13 0.14 0.10 0.10 0.17 0.18 0.16 0.11 0.09 0.10 0.10 0.10 0.09 0.10 0.15 0.17 0.16 0.15 0.18 0.19 0.19 0.17 0.20 0.18 0.18 0.21 0.21 0.19 0.19 0.19 0.17 0.17 0.17 0.17 0.18 0.20
0.27 0.23 0.17 0.16 0.16 0.15 0.14 0.15 0.16 0.17 0.16 0.17 0.21 0.25 0.19 0.17 0.15 0.12 0.12 0.14 0.15 0.15 0.17 0.20 0.19 0.21 0.21 0.20 0.21 0.20 0.19 0.18 0.18 0.17 0.17 0.18 0.19 0.18 0.18 0.18 0.17 0.17 0.18 0.19

GFSNGP_prec_precacc_159.txt.gz
Total_Precipitation_Accumulation
0.49 0.62 0.47 0.68 1.14 1.18 0.90 0.76 0.85 0.92 0.61 0.50 0.67 1.13 1.04 0.94 0.75 0.66 0.95 0.68 0.76 0.70 0.78 0.75 0.62 0.67 0.71 0.75 0.93 1.18 1.30 1.38 1.65 2.10 2.16 1.99 2.03 2.08 1.85 1.90 2.03 1.80 1.67 1.44
0.66 0.61 0.38 0.56 0.92 0.65 0.63 0.97 0.87 0.53 0.73 0.55 0.55 0.75 0.91 0.98 0.86 0.53 0.69 0.69 0.89 0.67 0.52 0.61 0.51 0.47 0.51 0.58 0.69 0.70 0.72 0.89 0.81 0.71 0.89 1.22 1.37 1.32 1.07 1.40 1.74 1.55 1.79 1.38
0.45 0.26 0.20 0.57 0.82 0.50 0.30 0.27 0.26 0.19 0.40 0.43 0.52 0.48 0.78 0.90 0.88 0.75 0.72 0.68 0.97 0.90 0.67 0.59 0.66 0.64 0.65 0.65 0.70 0.65 0.66 0.77 0.72 0.63 0.71 0.67 0.87 0.96 1.03 0.99 1.31 1.42 1.49 1.33
0.37 0.35 0.73 0.69 0.28 0.15 0.04 0.06 0.07 0.06 0.15 0.21 0.35 0.47 0.78 0.87 0.88 0.93 0.85 0.87 1.14 1.20 0.91 0.71 0.72 0.63 0.62 0.64 0.67 0.88 0.86 0.89 0.94 0.83 0.75 0.74 0.82 0.83 1.22 1.61 1.37 1.13 1.05 0.96
0.65 0.39 0.46 0.26 0.09 0.05 0.10 0.12 0.08 0.09 0.13 0.17 0.18 0.27 0.70 0.91 0.62 0.81 0.70 0.51 0.39 0.59 0.85 0.82 0.70 0.64 0.59 0.60 0.55 0.55 0.84 0.94 0.96 1.05 1.15 1.10 1.09 1.27 1.31 1.23 1.07 0.97 0.88 0.86
0.80 0.59 0.43 0.20 0.06 0.03 0.04 0.19 0.08 0.05 0.06 0.07 0.15 0.38 0.42 0.49 0.48 0.60 0.34 0.16 0.07 0.05 0.12 0.30 0.49 0.62 0.57 0.58 0.61 0.54 0.62 0.84 0.98 1.06 1.32 1.54 1.67 1.51 1.24 1.16 1.23 1.19 1.12 1.06
0.72 0.66 0.21 0.05 0.09 0.09 0.30 0.45 0.11 0.08 0.06 0.06 0.12 0.25 0.35 0.28 0.52 0.68 0.13 0.02 0.01 0.01 0.01 0.02 0.05 0.17 0.31 0.38 0.52 0.64 0.55 0.61 0.84 1.10 1.13 1.23 1.27 1.32 1.37 1.34 1.24 1.26 1.34 1.31
0.59 0.71 0.37 0.12 0.27 0.38 0.40 0.19 0.09 0.11 0.10 0.11 0.17 0.33 0.43 0.49 0.52 0.31 0.10 0.01 0.00 0.00 0.00 0.00 0.00 0.01 0.08 0.16 0.16 0.23 0.36 0.42 0.44 0.47 0.65 0.74 0.85 0.98 0.99 1.02 1.09 1.07 1.05 1.09
0.28 0.34 0.38 0.34 0.44 0.36 0.20 0.23 0.24 0.17 0.12 0.18 0.43 0.66 0.74 0.71 0.57 0.31 0.09 0.01 0.00 0.00 0.00 0.00 0.01 0.02 0.07 0.10 0.09 0.09 0.11 0.16 0.22 0.22 0.25 0.39 0.54 0.62 0.67 0.75 0.78 0.78 0.80 0.88
0.92 0.76 0.43 0.51 0.48 0.28 0.28 0.33 0.27 0.17 0.18 0.26 0.34 0.40 0.42 0.40 0.37 0.23 0.07 0.02 0.02 0.02 0.02 0.05 0.06 0.06 0.09 0.08 0.08 0.09 0.09 0.08 0.08 0.10 0.15 0.15 0.19 0.26 0.34 0.44 0.51 0.65 0.75 0.80
1.23 0.90 0.66 0.60 1.07 0.60 0.32 0.22 0.14 0.07 0.05 0.06 0.06 0.05 0.06 0.07 0.07 0.06 0.05 0.04 0.04 0.06 0.08 0.06 0.05 0.08 0.12 0.13 0.11 0.11 0.10 0.10 0.10 0.10 0.11 0.09 0.15 0.26 0.29 0.51 0.57 0.61 0.76 0.91
1.11 1.22 1.10 1.00 0.92 0.81 0.59 0.38 0.20 0.11 0.07 0.06 0.03 0.03 0.05 0.10 0.11 0.06 0.04 0.05 0.06 0.06 0.07 0.09 0.09 0.12 0.13 0.12 0.12 0.13 0.15 0.16 0.23 0.20 0.19 0.18 0.19 0.27 0.39 0.50 0.55 0.63 0.76 0.85
0.62 0.77 1.08 1.00 0.64 0.36 0.27 0.18 0.08 0.05 0.04 0.05 0.05 0.04 0.07 0.13 0.10 0.07 0.05 0.05 0.06 0.07 0.09 0.11 0.16 0.20 0.26 0.30 0.29 0.31 0.33 0.31 0.32 0.36 0.36 0.34 0.36 0.38 0.49 0.69 0.75 0.91 1.00 1.06
0.13 0.24 0.29 0.20 0.16 0.04 0.02 0.02 0.02 0.02 0.01 0.02 0.09 0.19 0.25 0.23 0.22 0.21 0.20 0.16 0.11 0.10 0.14 0.18 0.25 0.40 0.56 0.64 0.66 0.71 0.72 0.77 0.73 0.76 0.81 0.86 0.92 1.04 1.15 1.25 1.39 1.63 1.58 1.38
0.06 0.06 0.05 0.04 0.02 0.02 0.02 0.02 0.02 0.02 0.06 0.13 0.13 0.12 0.18 0.26 0.28 0.27 0.23 0.20 0.19 0.21 0.26 0.30 0.33 0.44 0.43 0.47 0.55 0.66 0.78 1.00 1.09 1.13 1.21 1.25 1.23 1.23 1.21 1.15 1.10 1.10 1.02 0.91
0.02 0.04 0.08 0.10 0.11 0.11 0.11 0.11 0.16 0.28 0.32 0.22 0.17 0.17 0.17 0.17 0.21 0.23 0.23 0.20 0.17 0.22 0.23 0.22 0.30 0.49 0.47 0.50 0.62 0.76 0.92 1.07 1.08 1.11 1.12 1.06 0.97 0.85 0.76 0.73 0.66 0.62 0.60 0.60
0.07 0.09 0.12 0.14 0.15 0.21 0.28 0.36 0.46 0.44 0.35 0.34 0.38 0.38 0.34 0.35 0.37 0.44 0.49 0.46 0.43 0.50 0.57 0.61 0.84 0.84 0.84 0.85 0.80 0.86 0.81 0.80 0.75 0.68 0.65 0.64 0.62 0.58 0.55 0.52 0.53 0.47 0.49 0.46
0.15 0.15 0.16 0.20 0.30 0.43 0.43 0.34 0.28 0.30 0.36 0.39 0.38 0.39 0.43 0.46 0.53 0.61 0.70 0.66 0.64 0.74 0.88 0.96 0.91 0.83 0.76 0.69 0.57 0.51 0.45 0.41 0.37 0.36 0.36 0.35 0.33 0.31 0.31 0.29 0.28 0.27 0.26 0.21
0.19 0.25 0.32 0.40 0.41 0.29 0.24 0.27 0.33 0.38 0.46 0.51 0.53 0.68 0.75 0.82 0.85 0.95 0.96 0.81 0.80 0.75 0.94 0.70 0.51 0.35 0.32 0.29 0.21 0.19 0.21 0.23 0.23 0.23 0.23 0.21 0.20 0.21 0.24 0.27 0.29 0.30 0.29 0.30
0.40 0.37 0.28 0.27 0.29 0.32 0.43 0.58 0.59 0.65 0.82 0.75 0.74 0.77 0.80 0.94 0.90 0.82 0.67 0.60 0.59 0.58 0.48 0.38 0.26 0.20 0.20 0.19 0.15 0.14 0.15 0.16 0.16 0.16 0.17 0.19 0.24 0.28 0.31 0.29 0.29 0.32 0.35 0.35
0.64 0.61 0.64 0.66 0.74 0.79 0.79 0.84 0.67 0.76 0.95 0.81 0.63 0.72 0.72 0.79 0.69 0.58 0.43 0.46 0.57 0.41 0.31 0.25 0.20 0.17 0.13 0.12 0.10 0.11 0.14 0.18 0.22 0.26 0.29 0.30 0.28 0.25 0.26 0.29 0.35 0.36 0.34 0.30
0.71 0.64 0.71 0.73 0.62 0.75 0.81 0.73 0.55 0.57 0.59 0.58 0.58 0.56 0.46 0.49 0.41 0.34 0.32 0.28 0.32 0.23 0.16 0.14 0.12 0.07 0.07 0.08 0.09 0.11 0.12 0.17 0.20 0.21 0.22 0.24 0.29 0.34 0.36 0.33 0.32 0.28 0.27 0.25
0.65 0.60 0.57 0.54 0.47 0.52 0.54 0.49 0.49 0.39 0.41 0.44 0.42 0.37 0.27 0.26 0.23 0.17 0.24 0.25 0.15 0.13 0.10 0.10 0.09 0.06 0.07 0.11 0.13 0.14 0.17 0.20 0.22 0.27 0.30 0.32 0.31 0.30 0.27 0.23 0.22 0.21 0.21 0.20
0.54 0.49 0.47 0.45 0.33 0.23 0.31 0.44 0.32 0.27 0.22 0.19 0.17 0.15 0.10 0.10 0.15 0.12 0.10 0.10 0.08 0.08 0.09 0.09 0.08 0.07 0.08 0.15 0.18 0.21 0.25 0.27 0.26 0.24 0.23 0.21 0.21 0.20 0.20 0.17 0.16 0.15 0.16 0.16
0.43 0.41 0.37 0.30 0.25 0.32 0.26 0.21 0.12 0.11 0.10 0.10 0.11 0.08 0.05 0.06 0.13 0.12 0.08 0.09 0.08 0.11 0.13 0.08 0.08 0.08 0.16 0.22 0.22 0.21 0.21 0.22 0.19 0.20 0.21 0.22 0.20 0.20 0.18 0.17 0.17 0.16 0.16 0.17
0.32 0.31 0.30 0.24 0.23 0.19 0.16 0.11 0.13 0.14 0.10 0.10 0.17 0.18 0.16 0.11 0.09 0.10 0.10 0.10 0.09 0.10 0.15 0.17 0.16 0.15 0.18 0.19 0.19 0.17 0.20 0.18 0.18 0.21 0.21 0.19 0.19 0.19 0.17 0.17 0.17 0.17 0.18 0.20
0.28 0.23 0.17 0.16 0.16 0.15 0.14 0.15 0.16 0.17 0.16 0.17 0.22 0.25 0.19 0.18 0.15 0.12 0.12 0.14 0.15 0.15 0.17 0.20 0.19 0.21 0.21 0.20 0.21 0.20 0.19 0.18 0.18 0.17 0.17 0.18 0.19 0.18 0.18 0.18 0.17 0.17 0.18 0.19

GFSNGP_prec_precacc_162.txt.gz
Total_Precipitation_Accumulation
0.53 0.63 0.47 0.68 1.14 1.18 0.90 0.76 0.86 0.92 0.61 0.50 0.67 1.14 1.05 0.94 0.75 0.66 0.95 0.68 0.76 0.70 0.78 0.75 0.62 0.67 0.71 0.75 0.93 1.18 1.30 1.38 1.65 2.10 2.16 1.99 2.03 2.08 1.85 1.90 2.03 1.80 1.67 1.44
0.69 0.62 0.40 0.60 0.94 0.65 0.63 0.97 0.87 0.53 0.73 0.55 0.55 0.75 0.91 0.98 0.86 0.53 0.69 0.69 0.89 0.67 0.52 0.61 0.51 0.47 0.51 0.58 0.69 0.70 0.72 0.89 0.81 0.71 0.89 1.22 1.37 1.32 1.07 1.40 1.74 1.55 1.79 1.38
0.48 0.27 0.22 0.64 0.85 0.50 0.30 0.27 0.26 0.19 0.40 0.43 0.52 0.48 0.78 0.90 0.88 0.75 0.72 0.68 0.97 0.90 0.67 0.59 0.66 0.64 0.65 0.65 0.70 0.65 0.66 0.77 0.72 0.63 0.71 0.67 0.87 0.96 1.03 0.99 1.31 1.42 1.49 1.33
0.55 0.49 0.94 0.72 0.28 0.15 0.04 0.06 0.07 0.06 0.15 0.21 0.35 0.47 0.78 0.87 0.88 0.93 0.85 0.87 1.14 1.20 0.91 0.71 0.72 0.63 0.62 0.64 0.67 0.88 0.86 0.89 0.94 0.83 0.75 0.74 0.82 0.83 1.22 1.61 1.37 1.13 1.05 0.96
0.77 0.47 0.49 0.27 0.09 0.05 0.10 0.12 0.08 0.09 0.13 0.17 0.18 0.27 0.70 0.91 0.62 0.81 0.70 0.51 0.39 0.59 0.85 0.82 0.70 0.64 0.59 0.60 0.55 0.55 0.84 0.94 0.96 1.05 1.15 1.10 1.09 1.27 1.31 1.23 1.07 0.97 0.88 0.86
0.92 0.63 0.44 0.20 0.06 0.03 0.04 0.19 0.08 0.05 0.06 0.07 0.15 0.38 0.42 0.49 0.48 0.60 0.34 0.16 0.07 0.05 0.12 0.30 0.49 0.62 0.57 0.58 0.61 0.54 0.62 0.84 0.98 1.06 1.32 1.54 1.67 1.51 1.24 1.16 1.23 1.19 1.12 1.06
0.84 0.70 0.22 0.05 0.09 0.09 0.30 0.45 0.11 0.08 0.06 0.06 0.12 0.25 0.35 0.28 0.52 0.68 0.13 0.02 0.01 0.01 0.01 0.02 0.05 0.17 0.31 0.38 0.52 0.64 0.55 0.61 0.84 1.10 1.13 1.23 1.27 1.32 1.37 1.34 1.24 1.26 1.34 1.31
0.71 0.80 0.39 0.12 0.27 0.38 0.40 0.19 0.09 0.11 0.10 0.11 0.17 0.33 0.43 0.49 0.52 0.31 0.10 0.01 0.00 0.00 0.00 0.00 0.00 0.01 0.08 0.16 0.16 0.23 0.36 0.42 0.44 0.47 0.65 0.74 0.85 0.98 0.99 1.02 1.09 1.07 1.05 1.09
0.29 0.35 0.38 0.34 0.44 0.36 0.20 0.23 0.24 0.17 0.12 0.18 0.43 0.66 0.74 0.71 0.57 0.31 0.09 0.01 0.00 0.00 0.00 0.00 0.01 0.02 0.07 0.10 0.09 0.09 0.11 0.16 0.22 0.22 0.25 0.39 0.54 0.62 0.67 0.75 0.78 0.78 0.80 0.88
0.93 0.77 0.43 0.51 0.48 0.28 0.28 0.33 0.27 0.17 0.18 0.26 0.34 0.40 0.42 0.40 0.37 0.23 0.07 0.02 0.02 0.02 0.02 0.05 0.06 0.06 0.09 0.08 0.08 0.09 0.09 0.08 0.08 0.10 0.15 0.15 0.19 0.26 0.34 0.44 0.51 0.65 0.75 0.80
1.24 0.90 0.66 0.60 1.07 0.60 0.32 0.22 0.14 0.07 0.05 0.06 0.06 0.05 0.06 0.07 0.07 0.06 0.05 0.04 0.04 0.06 0.08 0.06 0.05 0.08 0.12 0.13 0.11 0.11 0.10 0.10 0.10 0.10 0.11 0.09 0.15 0.26 0.29 0.51 0.57 0.61 0.76 0.91
1.11 1.22 1.10 1.00 0.92 0.81 0.59 0.39 0.21 0.12 0.08 0.07 0.03 0.04 0.05 0.10 0.11 0.06 0.04 0.05 0.06 0.06 0.07 0.09 0.09 0.12 0.13 0.12 0.12 0.13 0.15 0.16 0.23 0.20 0.19 0.18 0.19 0.27 0.39 0.50 0.55 0.63 0.76 0.85
0.62 0.77 1.08 1.00 0.64 0.36 0.27 0.19 0.09 0.05 0.04 0.05 0.05 0.04 0.07 0.13 0.10 0.07 0.05 0.05 0.06 0.07 0.09 0.11 0.16 0.20 0.26 0.30 0.29 0.31 0.33 0.31 0.32 0.36 0.36 0.34 0.36 0.38 0.49 0.70 0.76 0.91 1.00 1.06
0.13 0.24 0.29 0.20 0.16 0.04 0.02 0.02 0.02 0.02 0.01 0.02 0.09 0.19 0.25 0.23 0.22 0.21 0.20 0.16 0.11 0.10 0.14 0.18 0.25 0.40 0.56 0.64 0.66 0.71 0.72 0.77 0.73 0.76 0.81 0.86 0.92 1.04 1.15 1.25 1.40 1.63 1.58 1.38
0.06 0.06 0.05 0.04 0.02 0.02 0.02 0.02 0.02 0.02 0.06 0.13 0.13 0.12 0.18 0.27 0.28 0.27 0.23 0.20 0.19 0.21 0.26 0.30 0.33 0.44 0.43 0.47 0.55 0.66 0.78 1.00 1.09 1.13 1.21 1.25 1.23 1.23 1.21 1.15 1.10 1.10 1.02 0.91
0.02 0.04 0.08 0.10 0.11 0.11 0.11 0.11 0.16 0.28 0.32 0.22 0.17 0.17 0.18 0.17 0.21 0.24 0.23 0.20 0.17 0.22 0.23 0.22 0.30 0.49 0.47 0.50 0.62 0.76 0.92 1.07 1.08 1.11 1.12 1.06 0.97 0.85 0.76 0.73 0.67 0.62 0.60 0.60
0.07 0.09 0.12 0.14 0.15 0.21 0.28 0.36 0.46 0.44 0.35 0.34 0.38 0.38 0.34 0.35 0.37 0.44 0.49 0.46 0.43 0.50 0.57 0.61 0.84 0.84 0.84 0.85 0.80 0.86 0.81 0.80 0.75 0.68 0.65 0.64 0.62 0.58 0.55 0.52 0.53 0.47 0.49 0.46
0.15 0.15 0.16 0.20 0.30 0.43 0.43 0.34 0.28 0.30 0.36 0.39 0.38 0.39 0.43 0.46 0.53 0.62 0.70 0.66 0.64 0.74 0.88 0.96 0.91 0.83 0.76 0.69 0.57 0.51 0.45 0.41 0.37 0.36 0.36 0.35 0.33 0.31 0.31 0.29 0.28 0.27 0.26 0.21
0.19 0.25 0.32 0.40 0.41 0.29 0.24 0.27 0.33 0.38 0.46 0.51 0.53 0.68 0.75 0.83 0.86 0.95 0.96 0.81 0.80 0.75 0.94 0.70 0.51 0.35 0.32 0.29 0.21 0.19 0.21 0.23 0.23 0.23 0.23 0.21 0.20 0.21 0.24 0.27 0.29 0.30 0.29 0.30
0.40 0.37 0.28 0.27 0.29 0.32 0.43 0.58 0.59 0.65 0.82 0.75 0.74 0.77 0.80 0.94 0.90 0.82 0.67 0.60 0.59 0.58 0.48 0.38 0.26 0.20 0.20 0.19 0.15 0.14 0.15 0.16 0.16 0.16 0.17 0.19 0.24 0.28 0.31 0.29 0.29 0.32 0.35 0.35
0.64 0.61 0.64 0.66 0.74 0.79 0.79 0.84 0.67 0.76 0.95 0.81 0.63 0.72 0.72 0.79 0.69 0.58 0.44 0.46 0.57 0.41 0.31 0.25 0.20 0.17 0.13 0.12 0.10 0.11 0.14 0.18 0.22 0.26 0.29 0.30 0.28 0.25 0.26 0.29 0.35 0.36 0.34 0.30
0.71 0.64 0.71 0.73 0.62 0.75 0.81 0.73 0.55 0.57 0.59 0.58 0.61 0.62 0.51 0.54 0.45 0.37 0.34 0.28 0.32 0.23 0.16 0.14 0.12 0.07 0.07 0.08 0.09 0.11 0.12 0.17 0.20 0.21 0.22 0.24 0.29 0.34 0.36 0.33 0.32 0.28 0.27 0.25
0.65 0.60 0.57 0.54 0.47 0.52 0.54 0.49 0.50 0.40 0.41 0.45 0.44 0.43 0.34 0.30 0.25 0.18 0.24 0.25 0.15 0.13 0.10 0.10 0.09 0.06 0.07 0.11 0.13 0.14 0.17 0.20 0.22 0.27 0.30 0.32 0.31 0.30 0.27 0.23 0.22 0.21 0.21 0.20
0.54 0.50 0.47 0.45 0.33 0.23 0.31 0.45 0.35 0.35 0.31 0.24 0.19 0.16 0.11 0.11 0.15 0.12 0.10 0.10 0.08 0.08 0.09 0.09 0.08 0.07 0.08 0.15 0.18 0.21 0.25 0.27 0.26 0.24 0.23 0.21 0.21 0.20 0.20 0.17 0.16 0.15 0.16 0.16
0.43 0.42 0.38 0.30 0.25 0.32 0.26 0.23 0.14 0.13 0.12 0.12 0.14 0.10 0.06 0.06 0.13 0.12 0.08 0.09 0.08 0.11 0.13 0.08 0.08 0.08 0.16 0.22 0.22 0.21 0.21 0.22 0.19 0.20 0.21 0.22 0.20 0.20 0.18 0.17 0.17 0.16 0.16 0.17
0.33 0.31 0.30 0.24 0.23 0.19 0.16 0.11 0.13 0.15 0.10 0.11 0.19 0.19 0.16 0.11 0.09 0.10 0.11 0.10 0.09 0.10 0.15 0.17 0.16 0.15 0.18 0.19 0.19 0.17 0.20 0.18 0.18 0.21 0.21 0.19 0.19 0.19 0.17 0.17 0.17 0.17 0.18 0.20
0.29 0.24 0.18 0.16 0.17 0.15 0.15 0.16 0.16 0.18 0.16 0.17 0.22 0.26 0.19 0.18 0.16 0.13 0.13 0.14 0.15 0.15 0.17 0.20 0.19 0.21 0.21 0.20 0.21 0.20 0.19 0.18 0.18 0.17 0.17 0.18 0.19 0.18 0.18 0.18 0.17 0.17 0.18 0.19

GFSNGP_prec_precacc_165.txt.gz
Total_Precipitation_Accumulation
0.58 0.65 0.47 0.69 1.14 1.18 0.90 0.77 0.86 0.93 0.61 0.50 0.67 1.14 1.05 0.95 0.75 0.66 0.95 0.68 0.76 0.70 0.78 0.75 0.62 0.67 0.71 0.75 0.93 1.18 1.30 1.38 1.65 2.10 2.16 1.99 2.03 2.08 1.85 1.90 2.03 1.80 1.67 1.44
0.71 0.62 0.41 0.61 0.94 0.65 0.63 0.97 0.87 0.53 0.73 0.55 0.55 0.75 0.91 0.98 0.86 0.53 0.69 0.69 0.89 0.67 0.52 0.61 0.51 0.47 0.51 0.58 0.69 0.70 0.72 0.89 0.81 0.71 0.89 1.22 1.37 1.32 1.07 1.40 1.74 1.55 1.79 1.38
0.52 0.27 0.23 0.70 0.87 0.50 0.30 0.28 0.26 0.19 0.40 0.43 0.52 0.48 0.78 0.90 0.88 0.75 0.72 0.68 0.97 0.90 0.67 0.59 0.66 0.64 0.65 0.65 0.70 0.65 0.66 0.77 0.72 0.63 0.71 0.67 0.87 0.96 1.03 0.99 1.31 1.42 1.49 1.33
0.61 0.52 1.03 0.73 0.28 0.15 0.04 0.06 0.07 0.06 0.15 0.21 0.35 0.47 0.78 0.87 0.88 0.93 0.85 0.87 1.14 1.20 0.91 0.71 0.72 0.63 0.62 0.64 0.67 0.88 0.86 0.89 0.94 0.83 0.75 0.74 0.82 0.83 1.22 1.61 1.37 1.13 1.05 0.96
0.85 0.53 0.52 0.27 0.09 0.05 0.10 0.12 0.08 0.09 0.13 0.17 0.18 0.27 0.70 0.91 0.62 0.81 0.70 0.51 0.39 0.59 0.85 0.82 0.70 0.64 0.59 0.60 0.55 0.55 0.84 0.94 0.96 1.05 1.15 1.10 1.09 1.27 1.31 1.23 1.07 0.97 0.88 0.86
1.00 0.70 0.46 0.20 0.06 0.03 0.04 0.19 0.08 0.05 0.06 0.07 0.15 0.38 0.42 0.49 0.48 0.60 0.34 0.16 0.07 0.05 0.12 0.30 0.49 0.62 0.57 0.58 0.61 0.54 0.62 0.84 0.98 1.06 1.32 1.54 1.67 1.51 1.24 1.16 1.23 1.19 1.12 1.06
0.89 0.80 0.24 0.05 0.09 0.09 0.30 0.45 0.11 0.08 0.06 0.06 0.12 0.25 0.35 0.28 0.52 0.68 0.13 0.02 0.01 0.01 0.01 0.02 0.05 0.17 0.31 0.38 0.52 0.64 0.55 0.61 0.84 1.10 1.13 1.23 1.27 1.32 1.37 1.34 1.24 1.26 1.34 1.31
0.77 0.91 0.44 0.13 0.28 0.39 0.41 0.19 0.09 0.11 0.10 0.11 0.17 0.33 0.43 0.49 0.52 0.31 0.10 0.01 0.00 0.00 0.00 0.00 0.00 0.01 0.08 0.16 0.16 0.23 0.36 0.42 0.44 0.47 0.65 0.74 0.85 0.98 0.99 1.02 1.09 1.07 1.05 1.09
0.30 0.37 0.39 0.34 0.45 0.36 0.20 0.23 0.24 0.17 0.12 0.18 0.43 0.66 0.74 0.71 0.57 0.31 0.09 0.01 0.00 0.00 0.00 0.00 0.01 0.02 0.07 0.10 0.09 0.09 0.11 0.16 0.22 0.22 0.25 0.39 0.54 0.62 0.67 0.75 0.78 0.78 0.80 0.88
0.93 0.77 0.44 0.53 0.49 0.28 0.28 0.33 0.27 0.17 0.18 0.26 0.34 0.40 0.42 0.40 0.37 0.23 0.07 0.02 0.02 0.02 0.02 0.05 0.06 0.06 0.09 0.08 0.08 0.09 0.09 0.08 0.08 0.10 0.15 0.15 0.19 0.26 0.34 0.44 0.51 0.65 0.75 0.80
1.24 0.91 0.66 0.61 1.07 0.60 0.32 0.22 0.14 0.07 0.05 0.06 0.06 0.06 0.06 0.07 0.07 0.06 0.05 0.04 0.04 0.06 0.08 0.06 0.05 0.08 0.12 0.13 0.11 0.11 0.10 0.10 0.10 0.10 0.11 0.09 0.15 0.26 0.29 0.51 0.57 0.61 0.76 0.91
1.11 1.22 1.10 1.00 0.92 0.81 0.59 0.39 0.22 0.14 0.10 0.08 0.04 0.05 0.07 0.11 0.11 0.06 0.04 0.05 0.06 0.06 0.07 0.09 0.09 0.12 0.13 0.12 0.12 0.13 0.15 0.16 0.23 0.20 0.19 0.18 0.19 0.27 0.39 0.50 0.55 0.63 0.76 0.85
0.62 0.77 1.08 1.00 0.64 0.36 0.27 0.19 0.10 0.07 0.05 0.05 0.05 0.04 0.08 0.13 0.10 0.07 0.05 0.05 0.06 0.07 0.09 0.11 0.16 0.20 0.26 0.30 0.29 0.31 0.33 0.31 0.32 0.36 0.36 0.34 0.36 0.38 0.49 0.71 0.76 0.91 1.00 1.06
0.13 0.24 0.29 0.20 0.16 0.04 0.02 0.02 0.02 0.02 0.01 0.02 0.09 0.19 0.25 0.23 0.22 0.21 0.20 0.16 0.11 0.10 0.14 0.18 0.25 0.40 0.56 0.64 0.66 0.71 0.72 0.77 0.73 0.76 0.81 0.86 0.92 1.04 1.15 1.25 1.41 1.63 1.58 1.38
0.06 0.06 0.05 0.04 0.02 0.02 0.02 0.02 0.02 0.02 0.06 0.13 0.13 0.12 0.18 0.27 0.29 0.27 0.23 0.20 0.19 0.21 0.26 0.30 0.33 0.44 0.43 0.47 0.55 0.66 0.78 1.00 1.09 1.13 1.21 1.25 1.23 1.23 1.21 1.15 1.10 1.10 1.02 0.91
0.02 0.04 0.08 0.10 0.11 0.11 0.11 0.11 0.16 0.28 0.32 0.22 0.17 0.17 0.18 0.17 0.21 0.24 0.23 0.20 0.17 0.22 0.23 0.22 0.30 0.49 0.47 0.50 0.62 0.76 0.92 1.07 1.08 1.11 1.12 1.06 0.97 0.85 0.76 0.73 0.67 0.62 0.60 0.60
0.07 0.09 0.12 0.14 0.15 0.21 0.28 0.36 0.46 0.44 0.35 0.34 0.38 0.38 0.34 0.35 0.37 0.44 0.49 0.46 0.43 0.50 0.57 0.61 0.84 0.84 0.84 0.85 0.80 0.86 0.81 0.80 0.75 0.68 0.65 0.64 0.62 0.58 0.55 0.52 0.53 0.48 0.49 0.46
0.15 0.15 0.16 0.20 0.30 0.43 0.44 0.34 0.28 0.30 0.36 0.39 0.38 0.39 0.43 0.46 0.53 0.62 0.71 0.66 0.64 0.74 0.88 0.96 0.91 0.83 0.76 0.69 0.57 0.51 0.45 0.41 0.37 0.36 0.36 0.35 0.33 0.31 0.31 0.29 0.28 0.27 0.26 0.21
0.19 0.25 0.32 0.41 0.41 0.29 0.24 0.27 0.33 0.38 0.46 0.51 0.53 0.68 0.75 0.83 0.86 0.96 0.96 0.81 0.80 0.75 0.94 0.70 0.51 0.35 0.32 0.29 0.21 0.19 0.21 0.23 0.23 0.23 0.23 0.21 0.20 0.21 0.24 0.27 0.29 0.30 0.29 0.30
0.40 0.37 0.28 0.27 0.29 0.32 0.43 0.58 0.59 0.65 0.82 0.75 0.74 0.77 0.80 0.94 0.90 0.83 0.67 0.60 0.59 0.58 0.48 0.38 0.26 0.20 0.20 0.19 0.15 0.14 0.15 0.16 0.16 0.16 0.17 0.19 0.24 0.28 0.31 0.29 0.29 0.32 0.35 0.35
0.64 0.61 0.64 0.66 0.74 0.79 0.79 0.84 0.67 0.76 0.95 0.81 0.63 0.72 0.72 0.79 0.69 0.58 0.44 0.46 0.58 0.42 0.31 0.25 0.20 0.17 0.13 0.12 0.10 0.11 0.14 0.18 0.22 0.26 0.29 0.30 0.28 0.25 0.26 0.29 0.35 0.36 0.34 0.30
0.72 0.65 0.71 0.74 0.62 0.75 0.81 0.73 0.55 0.57 0.59 0.58 0.61 0.62 0.51 0.54 0.46 0.39 0.37 0.32 0.36 0.23 0.16 0.14 0.12 0.07 0.07 0.08 0.09 0.11 0.12 0.17 0.20 0.21 0.22 0.24 0.29 0.34 0.36 0.33 0.32 0.28 0.27 0.25
0.65 0.60 0.57 0.54 0.47 0.52 0.54 0.49 0.50 0.40 0.41 0.45 0.44 0.43 0.36 0.37 0.35 0.29 0.35 0.33 0.18 0.13 0.10 0.10 0.09 0.06 0.07 0.11 0.13 0.14 0.17 0.20 0.22 0.27 0.30 0.32 0.31 0.30 0.27 0.23 0.22 0.21 0.21 0.20
0.54 0.50 0.47 0.45 0.33 0.23 0.31 0.45 0.35 0.35 0.34 0.30 0.23 0.19 0.13 0.12 0.18 0.15 0.12 0.10 0.08 0.08 0.09 0.09 0.08 0.07 0.08 0.15 0.18 0.21 0.25 0.27 0.26 0.24 0.23 0.21 0.21 0.20 0.20 0.17 0.16 0.15 0.16 0.16
0.43 0.42 0.38 0.30 0.25 0.32 0.26 0.23 0.15 0.14 0.13 0.16 0.17 0.13 0.08 0.07 0.13 0.13 0.08 0.09 0.08 0.11 0.13 0.08 0.08 0.08 0.16 0.22 0.22 0.21 0.21 0.22 0.19 0.20 0.21 0.22 0.20 0.20 0.18 0.17 0.17 0.16 0.16 0.17
0.33 0.32 0.30 0.25 0.24 0.19 0.16 0.12 0.14 0.15 0.11 0.12 0.20 0.20 0.17 0.12 0.09 0.10 0.11 0.10 0.09 0.10 0.15 0.17 0.16 0.15 0.18 0.19 0.19 0.17 0.20 0.18 0.18 0.21 0.21 0.19 0.19 0.19 0.17 0.17 0.17 0.17 0.18 0.20
0.30 0.25 0.18 0.16 0.17 0.16 0.15 0.16 0.17 0.18 0.17 0.18 0.23 0.27 0.20 0.18 0.16 0.13 0.13 0.14 0.15 0.15 0.17 0.20 0.19 0.21 0.21 0.20 0.21 0.20 0.19 0.18 0.18 0.17 0.17 0.18 0.19 0.18 0.18 0.18 0.17 0.17 0.18 0.19

GFSNGP_prec_precacc_171.txt.gz
Total_Precipitation_Accumulation
0.60 0.66 0.48 0.72 1.16 1.18 0.91 0.80 0.95 0.96 0.62 0.50 0.67 1.14 1.05 0.95 0.75 0.66 0.95 0.68 0.76 0.70 0.78 0.75 0.62 0.67 0.71 0.75 0.93 1.18 1.30 1.38 1.65 2.10 2.16 1.99 2.03 2.08 1.85 1.90 2.04 1.81 1.67 1.44
0.73 0.63 0.41 0.63 0.95 0.65 0.63 0.97 0.87 0.53 0.74 0.55 0.55 0.75 0.91 0.98 0.86 0.53 0.69 0.69 0.89 0.67 0.52 0.61 0.51 0.47 0.51 0.58 0.69 0.70 0.72 0.89 0.81 0.71 0.89 1.22 1.37 1.32 1.07 1.40 1.74 1.55 1.79 1.38
0.58 0.27 0.26 0.78 0.87 0.50 0.30 0.28 0.26 0.20 0.41 0.43 0.52 0.48 0.78 0.90 0.88 0.75 0.72 0.68 0.97 0.90 0.67 0.59 0.66 0.64 0.65 0.65 0.70 0.65 0.66 0.77 0.72 0.63 0.71 0.67 0.87 0.96 1.03 0.99 1.31 1.42 1.49 1.33
0.66 0.54 1.13 0.74 0.28 0.15 0.04 0.06 0.07 0.06 0.15 0.21 0.35 0.47 0.78 0.87 0.88 0.93 0.85 0.87 1.14 1.20 0.91 0.71 0.72 0.63 0.62 0.64 0.67 0.88 0.86 0.89 0.94 0.83 0.75 0.74 0.82 0.83 1.22 1.61 1.37 1.13 1.05 0.96
0.92 0.57 0.55 0.27 0.09 0.05 0.10 0.12 0.08 0.09 0.13 0.17 0.18 0.27 0.70 0.91 0.62 0.81 0.71 0.51 0.39 0.59 0.85 0.82 0.70 0.64 0.59 0.60 0.55 0.55 0.84 0.94 0.96 1.05 1.15 1.10 1.09 1.27 1.31 1.23 1.07 0.97 0.88 0.86
1.11 0.81 0.50 0.20 0.06 0.05 0.06 0.21 0.08 0.05 0.06 0.07 0.15 0.39 0.42 0.49 0.48 0.60 0.35 0.16 0.07 0.05 0.12 0.30 0.49 0.62 0.57 0.58 0.61 0.54 0.62 0.84 0.98 1.06 1.32 1.54 1.67 1.51 1.24 1.16 1.23 1.19 1.12 1.06
1.10 1.10 0.42 0.06 0.09 0.10 0.33 0.47 0.11 0.08 0.06 0.06 0.15 0.29 0.36 0.28 0.52 0.68 0.13 0.02 0.01 0.01 0.01 0.02 0.05 0.17 0.31 0.38 0.52 0.64 0.55 0.61 0.84 1.10 1.13 1.23 1.27 1.33 1.37 1.34 1.24 1.26 1.34 1.31
0.89 1.04 0.52 0.16 0.33 0.43 0.45 0.20 0.10 0.11 0.10 0.11 0.17 0.34 0.43 0.49 0.52 0.31 0.10 0.01 0.00 0.00 0.00 0.00 0.00 0.01 0.08 0.16 0.16 0.23 0.36 0.42 0.44 0.47 0.65 0.74 0.85 0.98 0.99 1.02 1.09 1.07 1.05 1.09
0.42 0.53 0.47 0.37 0.46 0.37 0.20 0.24 0.24 0.17 0.13 0.18 0.43 0.66 0.74 0.71 0.57 0.31 0.09 0.01 0.00 0.00 0.00 0.00 0.01 0.02 0.07 0.10 0.09 0.09 0.11 0.16 0.22 0.22 0.25 0.39 0.54 0.62 0.67 0.75 0.78 0.78 0.80 0.88
0.96 0.78 0.45 0.54 0.51 0.30 0.29 0.34 0.27 0.17 0.19 0.26 0.34 0.40 0.42 0.40 0.37 0.23 0.07 0.02 0.02 0.02 0.02 0.05 0.06 0.06 0.09 0.08 0.08 0.09 0.09 0.08 0.08 0.10 0.15 0.15 0.19 0.26 0.34 0.44 0.51 0.65 0.75 0.80
1.25 0.91 0.67 0.62 1.09 0.62 0.34 0.23 0.15 0.07 0.05 0.07 0.06 0.06 0.06 0.07 0.07 0.06 0.05 0.04 0.04 0.06 0.08 0.06 0.05 0.08 0.12 0.13 0.11 0.11 0.10 0.10 0.10 0.10 0.11 0.09 0.15 0.26 0.29 0.51 0.57 0.61 0.76 0.91
1.13 1.23 1.12 1.02 0.92 0.81 0.59 0.40 0.22 0.14 0.11 0.11 0.07 0.10 0.08 0.12 0.11 0.06 0.04 0.05 0.06 0.06 0.07 0.09 0.09 0.12 0.13 0.12 0.12 0.13 0.15 0.16 0.23 0.20 0.19 0.18 0.19 0.27 0.39 0.50 0.55 0.63 0.76 0.85
0.62 0.77 1.08 1.00 0.64 0.36 0.27 0.19 0.10 0.08 0.07 0.09 0.08 0.06 0.11 0.16 0.12 0.07 0.05 0.05 0.06 0.07 0.09 0.11 0.16 0.20 0.26 0.30 0.29 0.31 0.33 0.31 0.32 0.36 0.36 0.34 0.36 0.38 0.49 0.71 0.76 0.91 1.00 1.06
0.13 0.24 0.29 0.20 0.16 0.04 0.02 0.02 0.02 0.02 0.02 0.05 0.12 0.21 0.29 0.29 0.28 0.23 0.21 0.17 0.11 0.10 0.14 0.18 0.25 0.40 0.56 0.64 0.66 0.71 0.72 0.77 0.73 0.76 0.81 0.86 0.92 1.04 1.15 1.26 1.41 1.64 1.59 1.39
0.06 0.06 0.05 0.04 0.02 0.02 0.02 0.02 0.02 0.02 0.06 0.13 0.13 0.13 0.19 0.29 0.32 0.28 0.24 0.20 0.19 0.21 0.26 0.30 0.33 0.44 0.43 0.47 0.55 0.66 0.78 1.00 1.09 1.13 1.21 1.25 1.23 1.23 1.21 1.15 1.11 1.11 1.04 0.93
0.02 0.04 0.08 0.10 0.11 0.11 0.11 0.11 0.16 0.28 0.32 0.22 0.17 0.17 0.18 0.17 0.21 0.24 0.23 0.20 0.17 0.23 0.24 0.22 0.30 0.49 0.47 0.50 0.62 0.76 0.92 1.07 1.08 1.11 1.12 1.06 0.97 0.85 0.77 0.74 0.68 0.63 0.61 0.62
0.07 0.09 0.12 0.14 0.15 0.21 0.28 0.36 0.46 0.44 0.35 0.34 0.38 0.38 0.34 0.35 0.37 0.44 0.49 0.46 0.43 0.51 0.58 0.61 0.85 0.84 0.84 0.85 0.80 0.86 0.81 0.80 0.75 0.68 0.65 0.64 0.62 0.58 0.56 0.53 0.54 0.49 0.50 0.47
0.15 0.15 0.16 0.20 0.30 0.43 0.44 0.34 0.28 0.30 0.36 0.39 0.38 0.39 0.43 0.46 0.53 0.62 0.71 0.66 0.65 0.74 0.88 0.96 0.91 0.83 0.76 0.69 0.57 0.51 0.45 0.41 0.37 0.36 0.36 0.35 0.33 0.31 0.31 0.30 0.28 0.28 0.27 0.23
0.19 0.25 0.32 0.41 0.41 0.29 0.24 0.27 0.33 0.38 0.46 0.51 0.53 0.68 0.75 0.83 0.86 0.96 0.96 0.81 0.80 0.76 0.94 0.70 0.51 0.35 0.32 0.30 0.22 0.20 0.21 0.23 0.23 0.23 0.23 0.21 0.20 0.21 0.24 0.28 0.30 0.31 0.30 0.31
0.40 0.37 0.28 0.27 0.29 0.32 0.43 0.58 0.59 0.66 0.82 0.75 0.74 0.77 0.80 0.94 0.90 0.83 0.67 0.61 0.60 0.59 0.48 0.38 0.26 0.20 0.20 0.20 0.16 0.14 0.15 0.16 0.16 0.16 0.17 0.19 0.24 0.29 0.31 0.29 0.30 0.33 0.36 0.35
0.64 0.61 0.65 0.67 0.74 0.80 0.79 0.84 0.67 0.76 0.95 0.81 0.63 0.72 0.72 0.79 0.69 0.58 0.44 0.46 0.58 0.42 0.31 0.25 0.20 0.17 0.14 0.13 0.10 0.11 0.14 0.18 0.22 0.26 0.29 0.30 0.28 0.25 0.26 0.30 0.36 0.37 0.35 0.30
0.72 0.65 0.72 0.74 0.62 0.75 0.81 0.73 0.55 0.57 0.59 0.58 0.61 0.62 0.51 0.54 0.46 0.39 0.37 0.32 0.37 0.25 0.16 0.14 0.12 0.07 0.07 0.08 0.09 0.11 0.12 0.17 0.20 0.21 0.22 0.24 0.29 0.34 0.36 0.34 0.32 0.29 0.28 0.26
0.65 0.60 0.57 0.54 0.47 0.52 0.54 0.49 0.50 0.40 0.41 0.45 0.44 0.43 0.37 0.37 0.35 0.29 0.38 0.39 0.26 0.20 0.14 0.12 0.10 0.07 0.08 0.11 0.13 0.14 0.17 0.20 0.22 0.27 0.30 0.33 0.31 0.31 0.27 0.24 0.22 0.21 0.21 0.21
0.54 0.50 0.47 0.45 0.33 0.23 0.31 0.45 0.35 0.35 0.34 0.31 0.24 0.20 0.15 0.14 0.20 0.17 0.17 0.22 0.25 0.27 0.28 0.24 0.20 0.16 0.14 0.16 0.18 0.21 0.25 0.27 0.26 0.24 0.23 0.21 0.21 0.20 0.20 0.18 0.16 0.16 0.17 0.16
0.43 0.42 0.38 0.30 0.25 0.33 0.27 0.23 0.15 0.14 0.14 0.16 0.19 0.15 0.11 0.11 0.18 0.19 0.13 0.13 0.12 0.16 0.21 0.21 0.21 0.14 0.18 0.22 0.22 0.21 0.21 0.22 0.19 0.20 0.21 0.22 0.20 0.20 0.18 0.17 0.17 0.17 0.17 0.17
0.33 0.32 0.31 0.25 0.24 0.20 0.17 0.12 0.14 0.16 0.11 0.13 0.21 0.23 0.20 0.16 0.14 0.15 0.17 0.18 0.14 0.14 0.18 0.20 0.17 0.16 0.19 0.20 0.19 0.18 0.20 0.19 0.18 0.21 0.21 0.19 0.19 0.19 0.18 0.17 0.17 0.17 0.19 0.20
0.30 0.25 0.19 0.17 0.17 0.16 0.16 0.16 0.17 0.19 0.17 0.18 0.25 0.29 0.23 0.21 0.18 0.16 0.17 0.18 0.18 0.18 0.19 0.22 0.20 0.22 0.21 0.21 0.22 0.22 0.21 0.19 0.18 0.17 0.17 0.18 0.19 0.18 0.18 0.18 0.17 0.17 0.18 0.19